K5BWX-2 Weather Reports


Display with metric or nautical units.
time (UTC)temp
F
wind
direction
speed
MPH
gust
MPH
rain 1hr
in
rain 24hr
in
rain mn
in
humidity
%
barometer
mb
20260902012352 82 125 2.0 4.0 0.00 0.00 0.00 62 1022.4
20260902012340 82 98 2.0 4.0 0.00 0.00 0.00 62 1022.4
20260902012117 82 129 2.0 4.0 0.00 0.00 0.00 62 1022.4
20260902012045 82 108 2.0 4.0 0.00 0.00 0.00 63 1022.5
20260902012036 82 129 2.0 4.0 0.00 0.00 0.00 63 1022.4
20260902011816 82 93 2.0 4.0 0.00 0.00 0.00 63 1022.4
20260902011714 82 106 2.0 4.0 0.00 0.00 0.00 63 1022.5
20260902011614 82 99 2.0 4.0 0.00 0.00 0.00 63 1022.4
20260902011548 82 98 2.0 4.0 0.00 0.00 0.00 63 1022.4
20260902011537 82 99 2.0 4.0 0.00 0.00 0.00 63 1022.4
20260902011345 82 105 2.0 4.0 0.00 0.00 0.00 64 1022.4
20260902011335 82 105 2.0 4.0 0.00 0.00 0.00 63 1022.4
20260902011113 82 101 2.0 4.0 0.00 0.00 0.00 63 1022.3
20260902011013 83 101 2.0 4.0 0.00 0.00 0.00 63 1022.4
20260902010949 83 105 2.0 4.0 0.00 0.00 0.00 63 1022.4
20260902010937 83 105 2.0 4.0 0.00 0.00 0.00 63 1022.4
20260902010712 83 101 2.0 4.0 0.00 0.00 0.00 63 1022.4
20260902010613 83 101 2.0 4.0 0.00 0.00 0.00 63 1022.4
20260902010521 83 100 2.0 4.0 0.00 0.00 0.00 63 1022.3
20260902010407 83 96 2.0 4.0 0.00 0.00 0.00 63 1022.3
20260902010306 83 83 2.0 6.0 0.00 0.00 0.00 63 1022.4
20260902010206 83 97 2.0 6.0 0.00 0.00 0.00 63 1022.3
20260902010143 83 98 2.0 6.0 0.00 0.00 0.00 63 1022.3
20260902010131 83 88 2.0 6.0 0.00 0.00 0.00 63 1022.4
20260902005903 83 98 2.0 6.0 0.00 0.00 0.00 63 1022.3
20260902005833 83 94 2.0 6.0 0.00 0.00 0.00 64 1022.4
20260902005824 83 98 2.0 6.0 0.00 0.00 0.00 64 1022.3
20260902005559 83 94 2.0 6.0 0.00 0.00 0.00 64 1022.3
20260902005500 83 89 2.0 6.0 0.00 0.00 0.00 64 1022.3
20260902005346 83 89 2.0 6.0 0.00 0.00 0.00 64 1022.3
20260902005332 83 94 2.0 4.0 0.00 0.00 0.00 64 1022.3
20260902005320 83 94 2.0 4.0 0.00 0.00 0.00 64 1022.3
20260902005045 83 94 2.0 4.0 0.00 0.00 0.00 64 1022.3
20260902004949 83 126 2.0 4.0 0.00 0.00 0.00 64 1022.3
20260902004842 83 126 2.0 4.0 0.00 0.00 0.00 64 1022.2
20260902004744 83 91 2.0 4.0 0.00 0.00 0.00 64 1022.2
20260902004644 83 91 2.0 4.0 0.00 0.00 0.00 64 1022.3
20260902004541 83 86 2.0 4.0 0.00 0.00 0.00 64 1022.2
20260902004442 83 86 2.0 6.0 0.00 0.00 0.00 64 1022.3
20260902004342 83 102 2.0 6.0 0.00 0.00 0.00 64 1022.2
20260902004237 83 102 2.0 6.0 0.00 0.00 0.00 64 1022.2
20260902004139 83 102 2.0 6.0 0.00 0.00 0.00 64 1022.2
20260902004036 83 102 2.0 6.0 0.00 0.00 0.00 64 1022.2
20260902003934 83 102 2.0 6.0 0.00 0.00 0.00 64 1022.2
20260902003906 83 101 2.0 6.0 0.00 0.00 0.00 64 1022.2
20260902003853 83 102 2.0 6.0 0.00 0.00 0.00 64 1022.2
20260902003625 83 119 2.0 6.0 0.00 0.00 0.00 64 1022.2
20260902003525 83 97 2.0 4.0 0.00 0.00 0.00 64 1022.2
20260902003425 83 96 2.0 4.0 0.00 0.00 0.00 64 1022.1
20260902003326 83 96 2.0 4.0 0.00 0.00 0.00 64 1022.2
20260902003227 83 95 2.0 4.0 0.00 0.00 0.00 64 1022.2
20260902003126 83 95 2.0 4.0 0.00 0.00 0.00 64 1022.2
20260902003054 83 82 2.0 4.0 0.00 0.00 0.00 64 1022.2
20260902003044 83 82 2.0 4.0 0.00 0.00 0.00 64 1022.2
20260902002825 83 82 2.0 4.0 0.00 0.00 0.00 64 1022.2
20260902002812 83 80 2.0 4.0 0.00 0.00 0.00 64 1022.3
20260902002806 83 80 2.0 4.0 0.00 0.00 0.00 64 1022.3
20260902002759 83 79 2.0 4.0 0.00 0.00 0.00 64 1022.3
20260902002748 83 80 2.0 4.0 0.00 0.00 0.00 64 1022.2
20260902002600 83 80 2.0 4.0 0.00 0.00 0.00 64 1022.2
20260902002218 83 79 2.0 4.0 0.00 0.00 0.00 64 1022.3
20260902002120 83 79 2.0 5.0 0.00 0.00 0.00 64 1022.2
20260902002021 83 80 2.0 5.0 0.00 0.00 0.00 64 1022.4
20260902001916 83 86 2.0 5.0 0.00 0.00 0.00 64 1022.2
20260902001815 83 86 3.0 5.0 0.00 0.00 0.00 64 1022.3
20260902001715 83 86 3.0 5.0 0.00 0.00 0.00 64 1022.2
20260902001615 83 86 3.0 5.0 0.00 0.00 0.00 64 1022.2
20260902001545 83 86 3.0 5.0 0.00 0.00 0.00 64 1022.2
20260902001417 83 86 2.0 5.0 0.00 0.00 0.00 64 1022.2
20260902001314 83 71 2.0 5.0 0.00 0.00 0.00 64 1022.2
20260902001216 83 71 2.0 5.0 0.00 0.00 0.00 64 1022.2
20260902001114 83 72 2.0 4.0 0.00 0.00 0.00 64 1022.2
20260902001016 83 97 2.0 4.0 0.00 0.00 0.00 64 1022.2
20260902000915 83 98 2.0 4.0 0.00 0.00 0.00 64 1022.3
20260902000815 83 98 2.0 4.0 0.00 0.00 0.00 64 1022.2
20260902000716 83 105 2.0 3.0 0.00 0.00 0.00 64 1022.2
20260902000616 83 105 2.0 3.0 0.00 0.00 0.00 64 1022.3
20260902000516 83 103 2.0 3.0 0.00 0.00 0.00 64 1022.2
20260902000414 83 103 2.0 3.0 0.00 0.00 0.00 64 1022.2
20260902000316 83 103 2.0 3.0 0.00 0.00 0.00 64 1022.3
20260902000234 84 101 2.0 4.0 0.00 0.00 0.00 64 1022.2
20260902000228 83 102 2.0 3.0 0.00 0.00 0.00 64 1022.3
20260902000218 83 103 2.0 3.0 0.00 0.00 0.00 64 1022.3
20260902000153 83 102 2.0 3.0 0.00 0.00 0.00 64 1022.2
20260902000008 84 102 2.0 3.0 0.00 0.00 0.00 63 1022.3
20260901235843 84 101 2.0 4.0 0.00 0.00 0.00 64 1022.2
20260901235614 84 101 2.0 4.0 0.00 0.00 0.00 63 1022.3
20260901235514 84 101 2.0 4.0 0.00 0.00 0.00 63 1022.3
20260901235415 84 100 2.0 4.0 0.00 0.00 0.00 63 1022.2
20260901235315 84 100 2.0 4.0 0.00 0.00 0.00 63 1022.2
20260901235217 84 100 2.0 4.0 0.00 0.00 0.00 63 1022.3
20260901235115 84 98 2.0 4.0 0.00 0.00 0.00 63 1022.3
20260901235015 84 98 2.0 4.0 0.00 0.00 0.00 63 1022.3
20260901234914 84 99 2.0 4.0 0.00 0.00 0.00 63 1022.4
20260901234816 84 86 2.0 4.0 0.00 0.00 0.00 63 1022.3
20260901234747 84 86 2.0 4.0 0.00 0.00 0.00 63 1022.3
20260901234735 84 86 2.0 4.0 0.00 0.00 0.00 63 1022.4
20260901234520 84 59 2.0 4.0 0.00 0.00 0.00 63 1022.3
20260901234455 84 58 2.0 4.0 0.00 0.00 0.00 63 1022.3
20260901234441 84 59 2.0 4.0 0.00 0.00 0.00 63 1022.3
20260901234221 84 57 2.0 4.0 0.00 0.00 0.00 63 1022.2
20260901234114 84 57 2.0 4.0 0.00 0.00 0.00 63 1022.3
20260901234017 84 57 2.0 4.0 0.00 0.00 0.00 63 1022.3
20260901233915 84 57 2.0 4.0 0.00 0.00 0.00 63 1022.3
20260901233815 84 57 2.0 4.0 0.00 0.00 0.00 63 1022.2
20260901233739 84 92 2.0 4.0 0.00 0.00 0.00 62 1022.3
20260901233726 84 57 2.0 4.0 0.00 0.00 0.00 63 1022.3
20260901233704 84 57 2.0 4.0 0.00 0.00 0.00 63 1022.3
20260901233538 84 52 2.0 4.0 0.00 0.00 0.00 62 1022.2
20260901233316 85 92 2.0 4.0 0.00 0.00 0.00 63 1022.3
20260901233211 84 92 2.0 4.0 0.00 0.00 0.00 63 1022.3
20260901233110 85 92 2.0 4.0 0.00 0.00 0.00 62 1022.3
20260901233040 85 92 2.0 4.0 0.00 0.00 0.00 62 1022.3
20260901233029 85 92 2.0 4.0 0.00 0.00 0.00 62 1022.2
20260901232845 85 94 2.0 5.0 0.00 0.00 0.00 62 1022.4
20260901232835 85 93 2.0 4.0 0.00 0.00 0.00 62 1022.3
20260901232612 85 69 2.0 5.0 0.00 0.00 0.00 62 1022.4
20260901232511 85 69 2.0 5.0 0.00 0.00 0.00 62 1022.4
20260901232411 85 69 2.0 5.0 0.00 0.00 0.00 62 1022.5
20260901232312 85 61 2.0 5.0 0.00 0.00 0.00 61 1022.5
20260901232241 85 61 2.0 5.0 0.00 0.00 0.00 61 1022.5
20260901232231 85 61 2.0 5.0 0.00 0.00 0.00 61 1022.4
20260901231957 85 60 2.0 5.0 0.00 0.00 0.00 62 1022.5
20260901231925 85 58 2.0 5.0 0.00 0.00 0.00 62 1022.5
20260901231917 85 60 2.0 5.0 0.00 0.00 0.00 61 1022.5
20260901231654 85 53 2.0 4.0 0.00 0.00 0.00 61 1022.5
20260901231555 85 61 1.0 4.0 0.00 0.00 0.00 61 1022.5
20260901231453 85 61 1.0 4.0 0.00 0.00 0.00 61 1022.5
20260901231351 85 62 1.0 4.0 0.00 0.00 0.00 61 1022.5
20260901231250 85 61 1.0 5.0 0.00 0.00 0.00 61 1022.6
20260901231150 85 61 2.0 5.0 0.00 0.00 0.00 61 1022.6
20260901231050 85 61 2.0 5.0 0.00 0.00 0.00 61 1022.6
20260901230951 85 76 1.0 5.0 0.00 0.00 0.00 61 1022.5
20260901230847 86 74 1.0 5.0 0.00 0.00 0.00 60 1022.5
20260901230745 86 75 1.0 5.0 0.00 0.00 0.00 60 1022.5
20260901230647 86 75 1.0 5.0 0.00 0.00 0.00 60 1022.5
20260901230547 86 75 1.0 5.0 0.00 0.00 0.00 60 1022.5
20260901230437 86 76 1.0 5.0 0.00 0.00 0.00 60 1022.5
20260901230337 86 65 1.0 5.0 0.00 0.00 0.00 60 1022.5
20260901230237 86 90 1.0 5.0 0.00 0.00 0.00 60 1022.5
20260901230137 86 90 1.0 5.0 0.00 0.00 0.00 59 1022.4
20260901230037 86 90 1.0 5.0 0.00 0.00 0.00 60 1022.4
20260901225939 86 90 1.0 5.0 0.00 0.00 0.00 59 1022.4
20260901225857 86 72 1.0 4.0 0.00 0.00 0.00 58 1022.4
20260901225844 86 90 1.0 5.0 0.00 0.00 0.00 59 1022.5
20260901225819 86 90 1.0 5.0 0.00 0.00 0.00 59 1022.5
20260901225654 86 72 1.0 4.0 0.00 0.00 0.00 59 1022.5
20260901225434 86 72 1.0 4.0 0.00 0.00 0.00 58 1022.4
20260901225402 86 72 1.0 4.0 0.00 0.00 0.00 59 1022.5
20260901225351 86 72 1.0 4.0 0.00 0.00 0.00 58 1022.4
20260901225131 86 72 1.0 4.0 0.00 0.00 0.00 58 1022.5
20260901225108 86 71 1.0 4.0 0.00 0.00 0.00 58 1022.5
20260901225053 86 72 1.0 4.0 0.00 0.00 0.00 58 1022.5
20260901224829 86 71 1.0 4.0 0.00 0.00 0.00 57 1022.4
20260901224723 86 74 0.0 3.0 0.00 0.00 0.00 57 1022.5
20260901224624 86 74 0.0 3.0 0.00 0.00 0.00 57 1022.5
20260901224522 86 74 0.0 3.0 0.00 0.00 0.00 58 1022.5
20260901224425 86 74 0.0 2.0 0.00 0.00 0.00 58 1022.4
20260901224322 86 74 1.0 2.0 0.00 0.00 0.00 58 1022.5
20260901224223 86 75 1.0 3.0 0.00 0.00 0.00 59 1022.5
20260901224116 87 75 1.0 4.0 0.00 0.00 0.00 59 1022.5
20260901224017 87 75 1.0 4.0 0.00 0.00 0.00 58 1022.5
20260901223916 87 75 1.0 4.0 0.00 0.00 0.00 58 1022.4
20260901223838 87 75 2.0 4.0 0.00 0.00 0.00 59 1022.5
20260901223833 87 75 2.0 4.0 0.00 0.00 0.00 58 1022.5
20260901223821 87 75 2.0 4.0 0.00 0.00 0.00 59 1022.5
20260901223757 87 75 2.0 4.0 0.00 0.00 0.00 58 1022.5
20260901223449 87 75 1.0 4.0 0.00 0.00 0.00 57 1022.5
20260901223438 87 75 2.0 4.0 0.00 0.00 0.00 58 1022.5
20260901223243 87 75 1.0 3.0 0.00 0.00 0.00 57 1022.5
20260901223232 87 75 1.0 4.0 0.00 0.00 0.00 57 1022.6
20260901223011 87 74 1.0 3.0 0.00 0.00 0.00 58 1022.5
20260901222910 87 75 1.0 2.0 0.00 0.00 0.00 59 1022.5
20260901222829 87 75 2.0 4.0 0.00 0.00 0.00 57 1022.5
20260901222823 87 75 2.0 4.0 0.00 0.00 0.00 58 1022.5
20260901222812 87 75 1.0 4.0 0.00 0.00 0.00 58 1022.5
20260901222752 87 75 2.0 4.0 0.00 0.00 0.00 58 1022.5
20260901222408 87 75 2.0 4.0 0.00 0.00 0.00 58 1022.4
20260901222345 87 75 2.0 4.0 0.00 0.00 0.00 58 1022.4
20260901222332 87 75 2.0 4.0 0.00 0.00 0.00 58 1022.5
20260901222105 87 74 2.0 4.0 0.00 0.00 0.00 58 1022.5
20260901222004 87 74 2.0 4.0 0.00 0.00 0.00 58 1022.4
20260901221904 87 74 2.0 4.0 0.00 0.00 0.00 57 1022.4
20260901221805 87 69 2.0 4.0 0.00 0.00 0.00 57 1022.5
20260901221706 87 68 2.0 4.0 0.00 0.00 0.00 58 1022.4
20260901221611 87 68 2.0 4.0 0.00 0.00 0.00 58 1022.4
20260901221505 87 68 2.0 4.0 0.00 0.00 0.00 58 1022.4
20260901221404 87 68 2.0 4.0 0.00 0.00 0.00 57 1022.4
20260901221304 87 68 2.0 4.0 0.00 0.00 0.00 57 1022.4
20260901221249 88 65 2.0 4.0 0.00 0.00 0.00 57 1022.4
20260901221234 88 68 2.0 4.0 0.00 0.00 0.00 56 1022.4
20260901221003 88 65 2.0 5.0 0.00 0.00 0.00 58 1022.4
20260901220903 88 53 2.0 5.0 0.00 0.00 0.00 57 1022.4
20260901220802 88 46 2.0 5.0 0.00 0.00 0.00 57 1022.4
20260901220742 88 87 2.0 5.0 0.00 0.00 0.00 57 1022.4
20260901220727 88 46 2.0 5.0 0.00 0.00 0.00 56 1022.4
20260901220501 88 87 2.0 6.0 0.00 0.00 0.00 57 1022.4
20260901220358 88 87 2.0 6.0 0.00 0.00 0.00 57 1022.3
20260901220259 88 87 2.0 6.0 0.00 0.00 0.00 56 1022.4
20260901220224 89 98 2.0 6.0 0.00 0.00 0.00 56 1022.4
20260901220215 88 83 2.0 6.0 0.00 0.00 0.00 56 1022.4
20260901215954 89 79 2.0 6.0 0.00 0.00 0.00 56 1022.3
20260901215854 89 123 2.0 6.0 0.00 0.00 0.00 56 1022.4
20260901215831 89 88 2.0 6.0 0.00 0.00 0.00 56 1022.4
20260901215819 89 111 2.0 6.0 0.00 0.00 0.00 56 1022.4
20260901215556 89 103 2.0 6.0 0.00 0.00 0.00 55 1022.4
20260901215453 89 108 2.0 6.0 0.00 0.00 0.00 55 1022.4
20260901215406 89 107 3.0 6.0 0.00 0.00 0.00 56 1022.4
20260901215356 89 109 2.0 6.0 0.00 0.00 0.00 54 1022.4
20260901215349 89 107 3.0 6.0 0.00 0.00 0.00 55 1022.4
20260901215328 89 109 2.0 6.0 0.00 0.00 0.00 55 1022.4
20260901214951 89 107 3.0 6.0 0.00 0.00 0.00 54 1022.4
20260901214852 89 94 2.0 6.0 0.00 0.00 0.00 54 1022.4
20260901214748 89 109 2.0 6.0 0.00 0.00 0.00 54 1022.4
20260901214651 89 96 2.0 6.0 0.00 0.00 0.00 54 1022.4
20260901214542 89 117 2.0 5.0 0.00 0.00 0.00 54 1022.4
20260901214442 89 117 2.0 4.0 0.00 0.00 0.00 54 1022.4
20260901214343 89 119 2.0 6.0 0.00 0.00 0.00 55 1022.4
20260901214245 89 120 2.0 6.0 0.00 0.00 0.00 56 1022.4
20260901214142 89 111 2.0 6.0 0.00 0.00 0.00 55 1022.4
20260901214037 89 59 2.0 6.0 0.00 0.00 0.00 55 1022.4
20260901213939 89 57 2.0 6.0 0.00 0.00 0.00 55 1022.5
20260901213839 89 59 2.0 6.0 0.00 0.00 0.00 56 1022.4
20260901213738 89 59 2.0 6.0 0.00 0.00 0.00 55 1022.4
20260901213636 89 59 2.0 6.0 0.00 0.00 0.00 55 1022.4
20260901213602 89 116 3.0 7.0 0.00 0.00 0.00 56 1022.5
20260901213550 89 116 2.0 7.0 0.00 0.00 0.00 55 1022.5
20260901213408 89 76 3.0 8.0 0.00 0.00 0.00 54 1022.5
20260901213354 89 85 3.0 8.0 0.00 0.00 0.00 55 1022.5
20260901213127 89 76 3.0 8.0 0.00 0.00 0.00 54 1022.5
20260901213028 89 76 3.0 8.0 0.00 0.00 0.00 54 1022.5
20260901212928 89 76 4.0 8.0 0.00 0.00 0.00 54 1022.5
20260901212834 89 76 4.0 8.0 0.00 0.00 0.00 55 1022.5
20260901212724 89 75 3.0 8.0 0.00 0.00 0.00 55 1022.5
20260901212627 89 71 3.0 8.0 0.00 0.00 0.00 55 1022.5
20260901212525 89 59 2.0 8.0 0.00 0.00 0.00 55 1022.4
20260901212425 89 69 2.0 8.0 0.00 0.00 0.00 54 1022.5
20260901212325 90 78 2.0 7.0 0.00 0.00 0.00 55 1022.5
20260901212224 90 72 1.0 6.0 0.00 0.00 0.00 55 1022.4
20260901212126 90 57 1.0 5.0 0.00 0.00 0.00 55 1022.4
20260901212026 90 58 1.0 5.0 0.00 0.00 0.00 54 1022.4
20260901211955 90 94 1.0 4.0 0.00 0.00 0.00 54 1022.4
20260901211944 90 66 1.0 4.0 0.00 0.00 0.00 54 1022.4
20260901211717 89 115 2.0 6.0 0.00 0.00 0.00 54 1022.5
20260901211650 89 63 2.0 7.0 0.00 0.00 0.00 54 1022.5
20260901211641 89 63 2.0 7.0 0.00 0.00 0.00 54 1022.5
20260901211418 89 63 2.0 7.0 0.00 0.00 0.00 54 1022.5
20260901211314 89 63 2.0 7.0 0.00 0.00 0.00 55 1022.6
20260901211211 89 63 2.0 7.0 0.00 0.00 0.00 55 1022.6
20260901211110 89 63 2.0 7.0 0.00 0.00 0.00 55 1022.5
20260901211011 89 61 2.0 7.0 0.00 0.00 0.00 55 1022.6
20260901210912 89 62 2.0 7.0 0.00 0.00 0.00 54 1022.6
20260901210805 89 61 2.0 7.0 0.00 0.00 0.00 55 1022.6
20260901210705 89 63 2.0 7.0 0.00 0.00 0.00 55 1022.6
20260901210643 89 38 2.0 6.0 0.00 0.00 0.00 53 1022.6
20260901210629 89 56 2.0 6.0 0.00 0.00 0.00 54 1022.6
20260901210406 89 23 2.0 6.0 0.00 0.00 0.00 53 1022.5
20260901210341 89 23 2.0 6.0 0.00 0.00 0.00 52 1022.6
20260901210323 89 23 2.0 6.0 0.00 0.00 0.00 52 1022.6
20260901210055 89 23 2.0 6.0 0.00 0.00 0.00 53 1022.6
20260901205956 89 32 2.0 6.0 0.00 0.00 0.00 53 1022.6
20260901205856 89 38 2.0 6.0 0.00 0.00 0.00 54 1022.7
20260901205751 89 41 2.0 6.0 0.00 0.00 0.00 54 1022.6
20260901205648 89 61 2.0 5.0 0.00 0.00 0.00 54 1022.6
20260901205549 89 61 2.0 5.0 0.00 0.00 0.00 54 1022.6
20260901205450 89 61 2.0 6.0 0.00 0.00 0.00 53 1022.6
20260901205349 89 61 3.0 6.0 0.00 0.00 0.00 52 1022.6
20260901205243 89 61 3.0 6.0 0.00 0.00 0.00 53 1022.7
20260901205225 89 51 3.0 6.0 0.00 0.00 0.00 52 1022.7
20260901205210 89 53 2.0 6.0 0.00 0.00 0.00 53 1022.7
20260901204943 89 51 3.0 6.0 0.00 0.00 0.00 53 1022.7
20260901204844 89 46 3.0 6.0 0.00 0.00 0.00 54 1022.6
20260901204736 89 70 2.0 6.0 0.00 0.00 0.00 54 1022.6
20260901204633 90 79 2.0 6.0 0.00 0.00 0.00 53 1022.6
20260901204616 89 86 2.0 5.0 0.00 0.00 0.00 56 1022.7
20260901204602 90 80 2.0 6.0 0.00 0.00 0.00 54 1022.7
20260901204345 89 49 2.0 4.0 0.00 0.00 0.00 54 1022.7
20260901204225 89 49 2.0 4.0 0.00 0.00 0.00 54 1022.7
20260901204205 89 76 2.0 4.0 0.00 0.00 0.00 57 1022.7
20260901204154 89 49 2.0 4.0 0.00 0.00 0.00 54 1022.6
20260901203930 89 76 2.0 4.0 0.00 0.00 0.00 55 1022.6
20260901203825 89 76 2.0 4.0 0.00 0.00 0.00 53 1022.7
20260901203726 89 111 2.0 4.0 0.00 0.00 0.00 53 1022.7
20260901203617 89 123 2.0 5.0 0.00 0.00 0.00 55 1022.7
20260901203519 89 114 2.0 5.0 0.00 0.00 0.00 56 1022.7
20260901203416 89 116 2.0 5.0 0.00 0.00 0.00 55 1022.7
20260901203317 89 80 2.0 6.0 0.00 0.00 0.00 54 1022.8
20260901203209 89 123 3.0 6.0 0.00 0.00 0.00 54 1022.7
20260901203108 89 124 3.0 6.0 0.00 0.00 0.00 54 1022.7
20260901203007 89 57 3.0 6.0 0.00 0.00 0.00 53 1022.8
20260901202910 89 57 3.0 6.0 0.00 0.00 0.00 54 1022.8
20260901202809 89 57 3.0 6.0 0.00 0.00 0.00 55 1022.7
20260901202704 89 57 3.0 6.0 0.00 0.00 0.00 57 1022.7
20260901202607 88 93 3.0 6.0 0.00 0.00 0.00 56 1022.7
20260901202541 88 94 3.0 6.0 0.00 0.00 0.00 56 1022.8
20260901202527 88 93 3.0 6.0 0.00 0.00 0.00 56 1022.7
20260901202301 88 65 3.0 6.0 0.00 0.00 0.00 56 1022.7
20260901202157 88 98 3.0 6.0 0.00 0.00 0.00 56 1022.8
20260901202055 88 124 3.0 6.0 0.00 0.00 0.00 54 1022.8
20260901201956 88 98 3.0 6.0 0.00 0.00 0.00 55 1022.8
20260901201937 88 86 3.0 6.0 0.00 0.00 0.00 56 1022.9
20260901201926 88 86 3.0 6.0 0.00 0.00 0.00 57 1022.7
20260901201715 88 65 2.0 5.0 0.00 0.00 0.00 56 1022.9
20260901201710 88 55 2.0 5.0 0.00 0.00 0.00 57 1023.0
20260901201652 88 53 3.0 5.0 0.00 0.00 0.00 56 1022.9
20260901201629 88 55 2.0 5.0 0.00 0.00 0.00 55 1022.9
20260901201242 88 92 2.0 4.0 0.00 0.00 0.00 57 1022.9
20260901201143 88 96 2.0 4.0 0.00 0.00 0.00 56 1022.9
20260901201035 88 94 2.0 4.0 0.00 0.00 0.00 56 1022.9
20260901201029 88 108 2.0 4.0 0.00 0.00 0.00 55 1022.9
20260901201013 88 108 2.0 4.0 0.00 0.00 0.00 56 1023.0
20260901200750 88 108 2.0 5.0 0.00 0.00 0.00 56 1022.9
20260901200640 88 108 2.0 6.0 0.00 0.00 0.00 57 1022.9
20260901200546 88 108 3.0 6.0 0.00 0.00 0.00 57 1022.9
20260901200440 88 78 3.0 6.0 0.00 0.00 0.00 57 1022.9
20260901200340 88 98 2.0 6.0 0.00 0.00 0.00 57 1022.9
20260901200228 88 77 2.0 6.0 0.00 0.00 0.00 57 1023.0
20260901200122 88 90 2.0 6.0 0.00 0.00 0.00 57 1022.9
20260901200023 88 119 2.0 6.0 0.00 0.00 0.00 58 1023.0
20260901195924 88 121 2.0 6.0 0.00 0.00 0.00 58 1023.1
20260901195842 88 55 2.0 6.0 0.00 0.00 0.00 57 1023.0
20260901195756 87 70 2.0 5.0 0.00 0.00 0.00 57 1023.0
20260901195752 87 70 2.0 5.0 0.00 0.00 0.00 58 1023.0
20260901195738 88 65 2.0 5.0 0.00 0.00 0.00 57 1022.9
20260901195709 88 81 2.0 5.0 0.00 0.00 0.00 56 1022.9
20260901195316 87 70 2.0 5.0 0.00 0.00 0.00 58 1023.0
20260901195213 87 70 2.0 5.0 0.00 0.00 0.00 57 1023.1
20260901195110 87 70 2.0 5.0 0.00 0.00 0.00 57 1023.0
20260901195010 87 69 3.0 5.0 0.00 0.00 0.00 57 1023.1
20260901194935 86 95 2.0 5.0 0.00 0.00 0.00 60 1023.1
20260901194919 87 69 3.0 5.0 0.00 0.00 0.00 57 1023.1
20260901194852 87 63 2.0 5.0 0.00 0.00 0.00 59 1023.0
20260901194553 86 47 2.0 5.0 0.00 0.00 0.00 60 1023.0
20260901194452 86 74 2.0 5.0 0.00 0.00 0.00 59 1023.0
20260901194351 86 215 2.0 7.0 0.00 0.00 0.00 59 1023.1
20260901194253 86 214 3.0 7.0 0.00 0.00 0.00 59 1023.1
20260901194153 85 214 2.0 7.0 0.00 0.00 0.00 59 1023.1
20260901194047 85 207 2.0 7.0 0.00 0.00 0.00 59 1023.1
20260901193946 85 222 2.0 7.0 0.00 0.00 0.00 61 1023.1
20260901193903 85 80 2.0 7.0 0.00 0.00 0.00 60 1023.1
20260901193849 85 80 2.0 7.0 0.00 0.00 0.00 61 1023.1
20260901193843 85 80 2.0 7.0 0.00 0.00 0.00 60 1023.1
20260901193825 85 80 2.0 7.0 0.00 0.00 0.00 61 1023.2
20260901193450 85 79 2.0 7.0 0.00 0.00 0.00 60 1023.1
20260901193342 85 78 2.0 7.0 0.00 0.00 0.00 61 1023.1
20260901193243 85 46 2.0 4.0 0.00 0.00 0.00 61 1023.2
20260901193143 85 46 1.0 4.0 0.00 0.00 0.00 63 1023.2
20260901193042 85 45 1.0 4.0 0.00 0.00 0.00 62 1023.2
20260901193023 85 45 1.0 4.0 0.00 0.00 0.00 60 1023.4
20260901193009 85 45 1.0 4.0 0.00 0.00 0.00 61 1023.2
20260901192815 85 45 1.0 3.0 0.00 0.00 0.00 60 1023.4
20260901192804 85 45 1.0 4.0 0.00 0.00 0.00 61 1023.4
20260901192540 85 45 0.0 3.0 0.00 0.00 0.00 60 1023.4
20260901192439 86 45 0.0 2.0 0.00 0.00 0.00 59 1023.4
20260901192340 86 45 0.0 2.0 0.00 0.00 0.00 59 1023.5
20260901192239 86 45 0.0 2.0 0.00 0.00 0.00 59 1023.4
20260901192137 86 45 0.0 2.0 0.00 0.00 0.00 58 1023.5
20260901192035 86 45 0.0 2.0 0.00 0.00 0.00 58 1023.5
20260901191935 86 45 0.0 2.0 0.00 0.00 0.00 62 1023.5
20260901191836 86 47 0.0 2.0 0.00 0.00 0.00 62 1023.5
20260901191732 86 47 1.0 3.0 0.00 0.00 0.00 62 1023.5
20260901191635 86 47 1.0 3.0 0.00 0.00 0.00 61 1023.5
20260901191531 86 47 1.0 3.0 0.00 0.00 0.00 60 1023.5
20260901191459 86 47 1.0 3.0 0.00 0.00 0.00 62 1023.5
20260901191449 86 47 1.0 3.0 0.00 0.00 0.00 63 1023.5
20260901191227 86 47 2.0 3.0 0.00 0.00 0.00 62 1023.6
20260901191125 86 47 2.0 3.0 0.00 0.00 0.00 60 1023.5
20260901191026 87 46 2.0 3.0 0.00 0.00 0.00 61 1023.5
20260901190924 87 47 2.0 3.0 0.00 0.00 0.00 60 1023.5
20260901190824 87 47 2.0 3.0 0.00 0.00 0.00 58 1023.6
20260901190723 87 47 2.0 4.0 0.00 0.00 0.00 57 1023.6
20260901190625 87 46 2.0 4.0 0.00 0.00 0.00 56 1023.6
20260901190524 87 45 2.0 5.0 0.00 0.00 0.00 58 1023.6
20260901190424 88 44 2.0 5.0 0.00 0.00 0.00 54 1023.6
20260901190323 88 329 2.0 6.0 0.00 0.00 0.00 56 1023.6
20260901190224 88 317 2.0 6.0 0.00 0.00 0.00 56 1023.6
20260901190123 88 317 2.0 6.0 0.00 0.00 0.00 55 1023.6
20260901190024 89 317 2.0 6.0 0.00 0.00 0.00 56 1023.6
20260901185926 89 233 2.0 6.0 0.00 0.00 0.00 54 1023.6
20260901185823 89 306 2.0 6.0 0.00 0.00 0.00 53 1023.6
20260901185725 89 312 2.0 7.0 0.00 0.00 0.00 54 1023.6
20260901185622 89 293 2.0 7.0 0.00 0.00 0.00 54 1023.7
20260901185520 89 290 2.0 7.0 0.00 0.00 0.00 54 1023.7
20260901185423 89 290 2.0 7.0 0.00 0.00 0.00 53 1023.7
20260901185324 89 340 2.0 7.0 0.00 0.00 0.00 54 1023.7
20260901185222 89 345 2.0 7.0 0.00 0.00 0.00 55 1023.7
20260901185114 89 38 2.0 7.0 0.00 0.00 0.00 54 1023.7
20260901185036 89 80 1.0 4.0 0.00 0.00 0.00 57 1023.7
20260901185021 89 41 2.0 7.0 0.00 0.00 0.00 57 1023.7
20260901184958 89 92 1.0 7.0 0.00 0.00 0.00 56 1023.7
20260901184831 89 67 2.0 6.0 0.00 0.00 0.00 58 1023.6
20260901184826 89 244 2.0 10.0 0.00 0.00 0.00 56 1023.7
20260901184811 89 84 1.0 4.0 0.00 0.00 0.00 55 1023.7
20260901184755 89 80 1.0 4.0 0.00 0.00 0.00 57 1023.7
20260901184702 89 73 1.0 4.0 0.00 0.00 0.00 56 1023.7
20260901184631 89 71 1.0 4.0 0.00 0.00 0.00 56 1023.7
20260901184201 88 194 2.0 10.0 0.00 0.00 0.00 56 1023.7
20260901184148 88 312 3.0 10.0 0.00 0.00 0.00 57 1023.6
20260901184136 87 312 3.0 10.0 0.00 0.00 0.00 58 1023.6
20260901184115 88 300 2.0 10.0 0.00 0.00 0.00 56 1023.7
20260901184048 88 312 3.0 10.0 0.00 0.00 0.00 57 1023.6
20260901183828 87 311 3.0 10.0 0.00 0.00 0.00 56 1023.6
20260901183816 87 312 3.0 10.0 0.00 0.00 0.00 55 1023.6
20260901183545 87 311 3.0 10.0 0.00 0.00 0.00 54 1023.6
20260901183447 88 325 3.0 10.0 0.00 0.00 0.00 55 1023.6
20260901183347 88 323 2.0 9.0 0.00 0.00 0.00 55 1023.6
20260901183248 88 231 2.0 6.0 0.00 0.00 0.00 55 1023.6
20260901183145 88 294 2.0 6.0 0.00 0.00 0.00 56 1023.6
20260901183046 88 306 2.0 6.0 0.00 0.00 0.00 54 1023.6
20260901183035 87 288 2.0 6.0 0.00 0.00 0.00 58 1023.6
20260901183029 87 288 2.0 6.0 0.00 0.00 0.00 60 1023.7
20260901183024 88 238 3.0 7.0 0.00 0.00 0.00 56 1023.6
20260901183018 88 304 2.0 7.0 0.00 0.00 0.00 55 1023.6
20260901183012 88 172 2.0 7.0 0.00 0.00 0.00 57 1023.6
20260901183005 87 283 2.0 7.0 0.00 0.00 0.00 57 1023.6
20260901182959 87 25 2.0 6.0 0.00 0.00 0.00 57 1023.6
20260901182948 88 317 2.0 5.0 0.00 0.00 0.00 55 1023.5
20260901182940 87 196 2.0 6.0 0.00 0.00 0.00 57 1023.6
20260901182919 88 355 2.0 5.0 0.00 0.00 0.00 53 1023.6
20260901182753 88 317 2.0 5.0 0.00 0.00 0.00 55 1023.6
20260901182731 88 109 2.0 7.0 0.00 0.00 0.00 57 1023.6
20260901182617 87 275 2.0 6.0 0.00 0.00 0.00 60 1023.7
20260901182604 88 106 2.0 7.0 0.00 0.00 0.00 56 1023.5
20260901182539 88 237 2.0 7.0 0.00 0.00 0.00 56 1023.5
20260901182221 87 305 2.0 7.0 0.00 0.00 0.00 58 1023.6
20260901182030 88 317 2.0 7.0 0.00 0.00 0.00 57 1023.7
20260901182004 88 321 2.0 7.0 0.00 0.00 0.00 55 1023.6
20260901181644 87 28 2.0 6.0 0.00 0.00 0.00 56 1023.7
20260901181613 87 196 2.0 6.0 0.00 0.00 0.00 57 1023.6
20260901181047 85 306 2.0 6.0 0.00 0.00 0.00 61 1023.8
20260901181036 87 306 2.0 5.0 0.00 0.00 0.00 59 1023.8
20260901181007 86 340 2.0 5.0 0.00 0.00 0.00 61 1023.9
20260901180945 86 318 2.0 5.0 0.00 0.00 0.00 58 1023.9
20260901180923 86 312 2.0 5.0 0.00 0.00 0.00 59 1023.9
20260901180855 86 319 2.0 5.0 0.00 0.00 0.00 61 1023.8
20260901180548 86 250 2.0 5.0 0.00 0.00 0.00 61 1023.9
20260901180330 85 306 2.0 6.0 0.00 0.00 0.00 61 1023.8
20260901180222 85 281 2.0 6.0 0.00 0.00 0.00 61 1023.9
20260901180128 86 283 2.0 6.0 0.00 0.00 0.00 62 1023.8
20260901180027 86 288 2.0 6.0 0.00 0.00 0.00 62 1024.0
20260901175924 86 209 2.0 6.0 0.00 0.00 0.00 61 1024.0
20260901175826 86 209 2.0 6.0 0.00 0.00 0.00 62 1024.0
20260901175801 85 190 2.0 5.0 0.00 0.00 0.00 62 1023.9
20260901175723 86 209 2.0 6.0 0.00 0.00 0.00 61 1023.9
20260901175704 85 190 2.0 5.0 0.00 0.00 0.00 62 1023.9
20260901175631 86 0 2.0 6.0 0.00 0.00 0.00 61 1023.9
20260901175611 86 0 2.0 6.0 0.00 0.00 0.00 63 1023.9
20260901175327 85 190 3.0 5.0 0.00 0.00 0.00 62 1023.9
20260901175218 85 190 3.0 5.0 0.00 0.00 0.00 62 1023.9
20260901175142 85 317 3.0 7.0 0.00 0.00 0.00 61 1024.0
20260901175118 85 190 3.0 5.0 0.00 0.00 0.00 62 1023.9
20260901175107 85 317 3.0 7.0 0.00 0.00 0.00 61 1024.0
20260901175043 85 329 3.0 5.0 0.00 0.00 0.00 62 1024.0
20260901174933 85 330 3.0 5.0 0.00 0.00 0.00 62 1024.0
20260901174900 85 316 3.0 7.0 0.00 0.00 0.00 62 1024.0
20260901174611 85 304 3.0 7.0 0.00 0.00 0.00 61 1024.0
20260901174513 85 333 3.0 7.0 0.00 0.00 0.00 62 1024.1
20260901174410 85 34 3.0 7.0 0.00 0.00 0.00 64 1024.0
20260901174357 85 0 3.0 7.0 0.00 0.00 0.00 63 1024.0
20260901174343 85 36 3.0 7.0 0.00 0.00 0.00 64 1024.0
20260901174148 85 317 3.0 7.0 0.00 0.00 0.00 63 1024.1
20260901174119 85 0 3.0 7.0 0.00 0.00 0.00 63 1024.1
20260901174100 85 301 3.0 7.0 0.00 0.00 0.00 63 1024.1
20260901173808 85 315 3.0 7.0 0.00 0.00 0.00 62 1024.1
20260901173709 85 329 3.0 7.0 0.00 0.00 0.00 63 1024.1
20260901173637 85 0 3.0 7.0 0.00 0.00 0.00 62 1024.1
20260901173623 85 334 3.0 7.0 0.00 0.00 0.00 63 1024.0
20260901173410 85 317 2.0 7.0 0.00 0.00 0.00 62 1024.2
20260901173314 85 296 2.0 5.0 0.00 0.00 0.00 61 1024.2
20260901173208 85 333 3.0 5.0 0.00 0.00 0.00 61 1024.2
20260901173107 85 207 2.0 6.0 0.00 0.00 0.00 60 1024.2
20260901173014 85 195 2.0 6.0 0.00 0.00 0.00 61 1024.2
20260901172911 85 295 2.0 6.0 0.00 0.00 0.00 60 1024.3
20260901172815 86 295 2.0 6.0 0.00 0.00 0.00 61 1024.2
20260901172718 86 337 2.0 6.0 0.00 0.00 0.00 60 1024.3
20260901172636 87 9 2.0 6.0 0.00 0.00 0.00 60 1024.3
20260901172617 86 300 2.0 6.0 0.00 0.00 0.00 60 1024.2
20260901172525 87 9 2.0 6.0 0.00 0.00 0.00 60 1024.3
20260901172410 87 9 2.0 6.0 0.00 0.00 0.00 59 1024.2
20260901172319 87 9 1.0 6.0 0.00 0.00 0.00 59 1024.2
20260901172207 87 349 1.0 6.0 0.00 0.00 0.00 58 1024.3
20260901172110 87 119 1.0 3.0 0.00 0.00 0.00 58 1024.2
20260901172041 87 117 2.0 7.0 0.00 0.00 0.00 58 1024.3
20260901172030 87 120 2.0 7.0 0.00 0.00 0.00 58 1024.3
20260901171808 87 192 2.0 7.0 0.00 0.00 0.00 59 1024.3
20260901171753 87 69 2.0 7.0 0.00 0.00 0.00 59 1024.3
20260901171719 87 69 2.0 7.0 0.00 0.00 0.00 59 1024.3
20260901171607 87 69 3.0 7.0 0.00 0.00 0.00 58 1024.3
20260901171510 87 111 3.0 7.0 0.00 0.00 0.00 60 1024.3
20260901171441 87 126 3.0 7.0 0.00 0.00 0.00 58 1024.3
20260901171416 87 111 3.0 7.0 0.00 0.00 0.00 58 1024.3
20260901171400 87 121 3.0 7.0 0.00 0.00 0.00 58 1024.3
20260901171131 87 151 3.0 7.0 0.00 0.00 0.00 58 1024.4
20260901171007 87 170 3.0 7.0 0.00 0.00 0.00 58 1024.4
20260901170950 87 223 3.0 8.0 0.00 0.00 0.00 60 1024.4
20260901170916 87 223 3.0 7.0 0.00 0.00 0.00 59 1024.3
20260901170845 87 225 3.0 8.0 0.00 0.00 0.00 58 1024.4
20260901170820 87 211 3.0 7.0 0.00 0.00 0.00 58 1024.4
20260901170749 87 219 3.0 7.0 0.00 0.00 0.00 58 1024.4
20260901170704 87 223 3.0 8.0 0.00 0.00 0.00 60 1024.4
20260901170404 87 241 3.0 8.0 0.00 0.00 0.00 59 1024.4
20260901170305 87 243 3.0 8.0 0.00 0.00 0.00 59 1024.4
20260901170214 87 202 3.0 8.0 0.00 0.00 0.00 59 1024.4
20260901170111 87 200 3.0 8.0 0.00 0.00 0.00 59 1024.4
20260901170012 87 171 3.0 8.0 0.00 0.00 0.00 59 1024.5
20260901170000 87 254 2.0 7.0 0.00 0.00 0.00 61 1024.6
20260901165955 87 231 2.0 8.0 0.00 0.00 0.00 61 1024.6
20260901165928 87 315 3.0 8.0 0.00 0.00 0.00 60 1024.5
20260901165910 87 230 2.0 8.0 0.00 0.00 0.00 60 1024.6
20260901165809 87 231 2.0 8.0 0.00 0.00 0.00 61 1024.6
20260901165615 87 254 2.0 7.0 0.00 0.00 0.00 61 1024.6
20260901165503 87 288 2.0 7.0 0.00 0.00 0.00 60 1024.6
20260901165412 87 252 2.0 7.0 0.00 0.00 0.00 61 1024.6
20260901165307 87 190 2.0 6.0 0.00 0.00 0.00 61 1024.5
20260901165159 87 246 2.0 5.0 0.00 0.00 0.00 62 1024.6
20260901165143 87 186 2.0 5.0 0.00 0.00 0.00 62 1024.6
20260901165128 87 246 1.0 5.0 0.00 0.00 0.00 61 1024.6
20260901164855 87 186 2.0 5.0 0.00 0.00 0.00 61 1024.6
20260901164756 87 186 2.0 8.0 0.00 0.00 0.00 61 1024.6
20260901164658 87 233 3.0 8.0 0.00 0.00 0.00 61 1024.6
20260901164556 87 240 3.0 8.0 0.00 0.00 0.00 61 1024.6
20260901164456 86 245 3.0 8.0 0.00 0.00 0.00 62 1024.7
20260901164356 86 292 3.0 8.0 0.00 0.00 0.00 61 1024.7
20260901164256 86 298 2.0 8.0 0.00 0.00 0.00 61 1024.7
20260901164157 86 317 2.0 8.0 0.00 0.00 0.00 62 1024.7
20260901164057 86 317 2.0 8.0 0.00 0.00 0.00 60 1024.7
20260901163956 86 217 2.0 8.0 0.00 0.00 0.00 59 1024.7
20260901163901 86 238 2.0 8.0 0.00 0.00 0.00 59 1024.7
20260901163758 86 213 2.0 8.0 0.00 0.00 0.00 59 1024.7
20260901163657 86 231 2.0 7.0 0.00 0.00 0.00 60 1024.8
20260901163556 86 193 2.0 9.0 0.00 0.00 0.00 62 1024.8
20260901163457 86 257 2.0 9.0 0.00 0.00 0.00 61 1024.8
20260901163355 86 255 2.0 9.0 0.00 0.00 0.00 61 1024.8
20260901163255 86 255 2.0 9.0 0.00 0.00 0.00 62 1024.8
20260901163155 86 255 2.0 9.0 0.00 0.00 0.00 63 1024.8
20260901163056 86 255 3.0 9.0 0.00 0.00 0.00 61 1024.8
20260901163036 86 269 3.0 9.0 0.00 0.00 0.00 62 1024.8
20260901163021 86 269 3.0 9.0 0.00 0.00 0.00 62 1024.8
20260901162757 86 309 2.0 9.0 0.00 0.00 0.00 62 1024.8
20260901162656 86 215 2.0 9.0 0.00 0.00 0.00 62 1024.9
20260901162555 86 355 2.0 8.0 0.00 0.00 0.00 62 1024.9
20260901162457 86 215 2.0 8.0 0.00 0.00 0.00 63 1024.9
20260901162354 85 198 2.0 8.0 0.00 0.00 0.00 64 1024.9
20260901162256 85 196 2.0 8.0 0.00 0.00 0.00 63 1024.9
20260901162153 85 184 2.0 8.0 0.00 0.00 0.00 65 1024.9
20260901162055 85 181 2.0 8.0 0.00 0.00 0.00 65 1024.9
20260901161954 85 213 3.0 8.0 0.00 0.00 0.00 65 1024.9
20260901161851 85 205 3.0 8.0 0.00 0.00 0.00 64 1024.9
20260901161753 85 248 3.0 8.0 0.00 0.00 0.00 63 1024.9
20260901161651 85 242 3.0 8.0 0.00 0.00 0.00 64 1024.9
20260901161612 85 217 3.0 8.0 0.00 0.00 0.00 64 1024.9
20260901161606 85 216 3.0 8.0 0.00 0.00 0.00 63 1024.9
20260901161556 85 209 3.0 8.0 0.00 0.00 0.00 64 1024.9
20260901161528 85 206 3.0 8.0 0.00 0.00 0.00 63 1025.1
20260901161140 85 192 2.0 8.0 0.00 0.00 0.00 64 1024.9
20260901161039 85 192 2.0 6.0 0.00 0.00 0.00 66 1024.9
20260901161015 85 190 2.0 6.0 0.00 0.00 0.00 66 1024.9
20260901161009 85 129 2.0 6.0 0.00 0.00 0.00 67 1024.9
20260901160953 85 188 2.0 6.0 0.00 0.00 0.00 65 1025.1
20260901160926 85 184 2.0 6.0 0.00 0.00 0.00 65 1024.9
20260901160758 85 256 2.0 6.0 0.00 0.00 0.00 66 1024.9
20260901160738 85 190 2.0 6.0 0.00 0.00 0.00 66 1024.9
20260901160452 85 163 2.0 6.0 0.00 0.00 0.00 66 1024.9
20260901160226 85 212 2.0 6.0 0.00 0.00 0.00 65 1024.9
20260901160128 85 212 2.0 6.0 0.00 0.00 0.00 67 1025.1
20260901160025 85 212 3.0 6.0 0.00 0.00 0.00 68 1025.1
20260901155927 85 299 2.0 6.0 0.00 0.00 0.00 69 1025.1
20260901155815 85 298 3.0 6.0 0.00 0.00 0.00 68 1024.9
20260901155753 84 304 3.0 7.0 0.00 0.00 0.00 67 1024.9
20260901155743 84 278 3.0 7.0 0.00 0.00 0.00 67 1024.9
20260901155514 84 245 3.0 9.0 0.00 0.00 0.00 66 1025.1
20260901155412 84 185 3.0 9.0 0.00 0.00 0.00 67 1025.1
20260901155307 84 182 3.0 9.0 0.00 0.00 0.00 69 1025.1
20260901155207 84 218 3.0 9.0 0.00 0.00 0.00 69 1025.1
20260901155109 84 225 2.0 9.0 0.00 0.00 0.00 71 1025.1
20260901155008 83 198 2.0 9.0 0.00 0.00 0.00 69 1025.1
20260901154906 83 286 2.0 9.0 0.00 0.00 0.00 69 1025.1
20260901154810 83 286 2.0 9.0 0.00 0.00 0.00 69 1025.1
20260901154726 83 199 2.0 9.0 0.00 0.00 0.00 68 1025.1
20260901154705 83 190 2.0 9.0 0.00 0.00 0.00 69 1025.1
20260901154640 83 213 2.0 6.0 0.00 0.00 0.00 68 1025.1
20260901154631 83 199 2.0 9.0 0.00 0.00 0.00 68 1025.1
20260901154401 83 200 2.0 6.0 0.00 0.00 0.00 70 1025.2
20260901154334 83 225 2.0 6.0 0.00 0.00 0.00 70 1025.2
20260901154324 83 302 2.0 6.0 0.00 0.00 0.00 70 1025.2
20260901154134 83 277 2.0 6.0 0.00 0.00 0.00 70 1025.1
20260901154123 83 292 2.0 6.0 0.00 0.00 0.00 70 1025.1
20260901153859 83 277 2.0 6.0 0.00 0.00 0.00 69 1025.2
20260901153758 83 220 2.0 6.0 0.00 0.00 0.00 71 1025.1
20260901153723 82 214 2.0 6.0 0.00 0.00 0.00 71 1025.1
20260901153717 82 214 2.0 6.0 0.00 0.00 0.00 70 1025.1
20260901153706 83 252 2.0 5.0 0.00 0.00 0.00 71 1025.1
20260901153639 83 247 2.0 6.0 0.00 0.00 0.00 70 1025.1
20260901153300 82 213 2.0 6.0 0.00 0.00 0.00 70 1025.1
20260901153153 82 5 2.0 6.0 0.00 0.00 0.00 70 1025.1
20260901153055 82 5 2.0 6.0 0.00 0.00 0.00 71 1025.1
20260901153034 82 226 2.0 6.0 0.00 0.00 0.00 73 1025.1
20260901153020 82 5 2.0 6.0 0.00 0.00 0.00 71 1025.1
20260901152824 82 319 2.0 6.0 0.00 0.00 0.00 72 1025.1
20260901152812 82 319 2.0 6.0 0.00 0.00 0.00 73 1025.1
20260901152547 82 289 2.0 5.0 0.00 0.00 0.00 71 1025.1
20260901152447 82 296 2.0 5.0 0.00 0.00 0.00 70 1025.1
20260901152412 82 21 2.0 5.0 0.00 0.00 0.00 70 1025.1
20260901152404 82 21 2.0 5.0 0.00 0.00 0.00 71 1024.9
20260901152143 82 33 2.0 5.0 0.00 0.00 0.00 69 1025.2
20260901152122 82 250 2.0 5.0 0.00 0.00 0.00 71 1025.1
20260901152117 82 315 2.0 5.0 0.00 0.00 0.00 71 1025.2
20260901152102 82 60 2.0 5.0 0.00 0.00 0.00 69 1025.2
20260901152045 82 15 2.0 5.0 0.00 0.00 0.00 70 1025.2
20260901151803 82 308 2.0 5.0 0.00 0.00 0.00 71 1025.1
20260901151529 82 250 2.0 5.0 0.00 0.00 0.00 70 1025.2
20260901151433 82 251 2.0 4.0 0.00 0.00 0.00 70 1025.2
20260901151336 82 340 2.0 4.0 0.00 0.00 0.00 70 1025.2
20260901151228 82 323 2.0 5.0 0.00 0.00 0.00 70 1025.1
20260901151129 82 322 2.0 5.0 0.00 0.00 0.00 70 1025.2
20260901151029 82 213 2.0 5.0 0.00 0.00 0.00 70 1025.2
20260901150928 82 213 2.0 5.0 0.00 0.00 0.00 71 1025.2
20260901150905 82 208 1.0 5.0 0.00 0.00 0.00 71 1025.2
20260901150853 82 209 2.0 5.0 0.00 0.00 0.00 70 1025.2
20260901150627 82 259 1.0 5.0 0.00 0.00 0.00 72 1025.1
20260901150528 82 335 1.0 5.0 0.00 0.00 0.00 72 1025.2
20260901150503 81 245 1.0 5.0 0.00 0.00 0.00 70 1025.1
20260901150450 81 249 1.0 5.0 0.00 0.00 0.00 72 1025.1
20260901150225 81 337 1.0 4.0 0.00 0.00 0.00 71 1025.2
20260901150124 81 337 1.0 4.0 0.00 0.00 0.00 72 1025.2
20260901150021 81 337 1.0 4.0 0.00 0.00 0.00 72 1025.1
20260901150000 81 337 1.0 4.0 0.00 0.00 0.00 71 1025.2
20260901145946 81 337 1.0 4.0 0.00 0.00 0.00 71 1025.1
20260901145721 81 323 1.0 4.0 0.00 0.00 0.00 71 1025.2
20260901145623 81 323 1.0 4.0 0.00 0.00 0.00 73 1025.1
20260901145525 81 309 1.0 3.0 0.00 0.00 0.00 73 1025.1
20260901145512 81 311 1.0 4.0 0.00 0.00 0.00 72 1025.1
20260901145455 81 310 2.0 4.0 0.00 0.00 0.00 73 1025.1
20260901145432 81 310 1.0 4.0 0.00 0.00 0.00 73 1025.2
20260901145410 81 310 1.0 4.0 0.00 0.00 0.00 72 1025.1
20260901145204 81 311 1.0 4.0 0.00 0.00 0.00 72 1025.1
20260901145138 81 310 1.0 4.0 0.00 0.00 0.00 72 1025.1
20260901145108 81 311 2.0 4.0 0.00 0.00 0.00 72 1025.1
20260901144944 81 311 1.0 4.0 0.00 0.00 0.00 72 1025.1
20260901144713 80 175 1.0 4.0 0.00 0.00 0.00 72 1025.1
20260901144610 80 261 1.0 4.0 0.00 0.00 0.00 71 1025.2
20260901144510 80 261 1.0 4.0 0.00 0.00 0.00 71 1025.1
20260901144408 80 237 1.0 4.0 0.00 0.00 0.00 72 1025.1
20260901144340 80 240 1.0 4.0 0.00 0.00 0.00 72 1025.2
20260901144324 80 240 1.0 4.0 0.00 0.00 0.00 71 1025.2
20260901144101 80 194 2.0 5.0 0.00 0.00 0.00 72 1025.1
20260901144000 80 223 2.0 5.0 0.00 0.00 0.00 73 1025.2
20260901143954 80 223 2.0 5.0 0.00 0.00 0.00 73 1025.1
20260901143932 80 223 2.0 5.0 0.00 0.00 0.00 74 1025.1
20260901143743 80 230 2.0 5.0 0.00 0.00 0.00 72 1025.1
20260901143729 80 223 2.0 5.0 0.00 0.00 0.00 72 1025.1
20260901143527 80 228 2.0 5.0 0.00 0.00 0.00 72 1024.9
20260901143511 80 229 2.0 5.0 0.00 0.00 0.00 72 1025.1
20260901143441 80 204 2.0 5.0 0.00 0.00 0.00 72 1024.9
20260901143316 80 217 2.0 5.0 0.00 0.00 0.00 72 1024.9
20260901143056 80 228 2.0 4.0 0.00 0.00 0.00 73 1025.1
20260901143041 80 280 1.0 4.0 0.00 0.00 0.00 73 1024.9
20260901143033 80 346 1.0 4.0 0.00 0.00 0.00 73 1025.1
20260901143027 80 249 1.0 4.0 0.00 0.00 0.00 73 1025.1
20260901143008 80 221 1.0 4.0 0.00 0.00 0.00 73 1024.9
20260901142939 80 237 1.0 4.0 0.00 0.00 0.00 73 1025.1
20260901142744 80 346 1.0 4.0 0.00 0.00 0.00 73 1024.9
20260901142329 80 212 1.0 4.0 0.00 0.00 0.00 73 1024.9
20260901142229 80 213 2.0 4.0 0.00 0.00 0.00 73 1025.1
20260901142129 80 213 2.0 4.0 0.00 0.00 0.00 73 1024.9
20260901142051 80 317 2.0 4.0 0.00 0.00 0.00 73 1024.9
20260901142040 80 304 2.0 4.0 0.00 0.00 0.00 72 1025.1
20260901142020 80 306 2.0 4.0 0.00 0.00 0.00 73 1025.1
20260901141849 80 299 2.0 4.0 0.00 0.00 0.00 74 1025.1
20260901141618 80 308 2.0 5.0 0.00 0.00 0.00 73 1024.9
20260901141518 80 308 2.0 5.0 0.00 0.00 0.00 73 1024.8
20260901141420 80 308 2.0 5.0 0.00 0.00 0.00 72 1024.9
20260901141319 79 195 2.0 7.0 0.00 0.00 0.00 73 1024.9
20260901141218 79 286 2.0 7.0 0.00 0.00 0.00 73 1024.9
20260901141116 79 297 2.0 7.0 0.00 0.00 0.00 73 1024.9
20260901141020 79 275 2.0 7.0 0.00 0.00 0.00 73 1024.8
20260901140915 79 198 2.0 7.0 0.00 0.00 0.00 73 1024.9
20260901140815 79 198 2.0 7.0 0.00 0.00 0.00 73 1024.8
20260901140752 79 281 3.0 7.0 0.00 0.00 0.00 73 1024.9
20260901140740 79 303 2.0 7.0 0.00 0.00 0.00 73 1024.9
20260901140512 79 277 3.0 7.0 0.00 0.00 0.00 73 1024.8
20260901140412 79 275 3.0 7.0 0.00 0.00 0.00 73 1024.8
20260901140314 79 292 2.0 7.0 0.00 0.00 0.00 73 1024.8
20260901140209 79 246 3.0 7.0 0.00 0.00 0.00 74 1024.9
20260901140109 79 243 3.0 7.0 0.00 0.00 0.00 73 1024.9
20260901140006 79 281 2.0 7.0 0.00 0.00 0.00 74 1024.8
20260901135905 79 265 2.0 7.0 0.00 0.00 0.00 73 1024.8
20260901135805 79 300 2.0 6.0 0.00 0.00 0.00 74 1024.8
20260901135705 79 312 2.0 6.0 0.00 0.00 0.00 74 1024.8
20260901135636 79 269 2.0 6.0 0.00 0.00 0.00 75 1024.8
20260901135625 79 268 2.0 6.0 0.00 0.00 0.00 74 1024.8
20260901135441 78 274 1.0 6.0 0.00 0.00 0.00 75 1024.9
20260901135437 78 275 1.0 6.0 0.00 0.00 0.00 75 1024.8
20260901135432 78 200 1.0 5.0 0.00 0.00 0.00 75 1024.8
20260901135419 79 269 2.0 6.0 0.00 0.00 0.00 75 1024.8
20260901135400 78 264 2.0 6.0 0.00 0.00 0.00 75 1024.8
20260901134855 78 219 1.0 5.0 0.00 0.00 0.00 75 1024.8
20260901134752 78 210 1.0 5.0 0.00 0.00 0.00 75 1024.8
20260901134659 78 202 1.0 5.0 0.00 0.00 0.00 75 1024.8
20260901134554 78 313 1.0 4.0 0.00 0.00 0.00 75 1024.8
20260901134449 78 313 1.0 4.0 0.00 0.00 0.00 76 1024.8
20260901134349 78 272 1.0 4.0 0.00 0.00 0.00 75 1024.9
20260901134251 78 273 1.0 4.0 0.00 0.00 0.00 75 1024.9
20260901134151 78 298 1.0 4.0 0.00 0.00 0.00 75 1024.8
20260901134048 78 298 1.0 4.0 0.00 0.00 0.00 75 1024.8
20260901133944 78 298 1.0 4.0 0.00 0.00 0.00 76 1024.8
20260901133841 78 298 1.0 4.0 0.00 0.00 0.00 75 1024.9
20260901133742 78 259 1.0 4.0 0.00 0.00 0.00 76 1024.9
20260901133640 78 266 1.0 4.0 0.00 0.00 0.00 77 1024.9
20260901133538 78 266 1.0 4.0 0.00 0.00 0.00 76 1024.9
20260901133434 78 266 1.0 4.0 0.00 0.00 0.00 76 1024.8
20260901133335 78 320 1.0 4.0 0.00 0.00 0.00 76 1024.9
20260901133233 77 226 1.0 4.0 0.00 0.00 0.00 77 1024.9
20260901133134 77 226 1.0 4.0 0.00 0.00 0.00 76 1024.9
20260901133032 77 226 1.0 4.0 0.00 0.00 0.00 76 1024.9
20260901132930 77 237 2.0 4.0 0.00 0.00 0.00 76 1024.9
20260901132829 77 237 2.0 4.0 0.00 0.00 0.00 77 1024.8
20260901132729 77 239 2.0 4.0 0.00 0.00 0.00 77 1024.8
20260901132628 77 239 1.0 4.0 0.00 0.00 0.00 77 1024.9
20260901132528 77 228 1.0 3.0 0.00 0.00 0.00 77 1024.8
20260901132413 77 228 1.0 3.0 0.00 0.00 0.00 77 1024.8
20260901132311 77 228 1.0 4.0 0.00 0.00 0.00 77 1024.8
20260901132211 77 227 1.0 4.0 0.00 0.00 0.00 78 1024.8
20260901132112 77 219 1.0 4.0 0.00 0.00 0.00 77 1024.8
20260901132041 77 254 1.0 4.0 0.00 0.00 0.00 77 1024.8
20260901132031 77 253 1.0 4.0 0.00 0.00 0.00 77 1024.8
20260901131807 77 217 1.0 4.0 0.00 0.00 0.00 77 1024.8
20260901131725 76 215 1.0 4.0 0.00 0.00 0.00 77 1024.8
20260901131713 77 217 1.0 4.0 0.00 0.00 0.00 78 1024.9
20260901131651 77 216 1.0 4.0 0.00 0.00 0.00 77 1024.8
20260901131527 76 215 2.0 4.0 0.00 0.00 0.00 77 1024.8
20260901131303 76 224 1.0 4.0 0.00 0.00 0.00 78 1024.9
20260901131203 76 224 1.0 4.0 0.00 0.00 0.00 78 1024.8
20260901131102 76 224 1.0 4.0 0.00 0.00 0.00 78 1024.9
20260901131000 76 223 2.0 4.0 0.00 0.00 0.00 78 1024.8
20260901130926 76 223 2.0 4.0 0.00 0.00 0.00 78 1024.8
20260901130914 76 223 2.0 4.0 0.00 0.00 0.00 78 1024.9
20260901130654 76 209 2.0 4.0 0.00 0.00 0.00 78 1024.9
20260901130551 76 209 2.0 4.0 0.00 0.00 0.00 78 1024.8
20260901130522 76 227 2.0 4.0 0.00 0.00 0.00 78 1024.8
20260901130513 76 209 2.0 4.0 0.00 0.00 0.00 78 1024.8
20260901130252 76 227 2.0 4.0 0.00 0.00 0.00 78 1024.8
20260901130149 76 227 2.0 4.0 0.00 0.00 0.00 78 1024.8
20260901130049 76 217 2.0 4.0 0.00 0.00 0.00 78 1024.7
20260901125951 76 229 2.0 4.0 0.00 0.00 0.00 78 1024.7
20260901125849 76 229 2.0 4.0 0.00 0.00 0.00 78 1024.7
20260901125749 76 229 2.0 4.0 0.00 0.00 0.00 78 1024.8
20260901125708 76 216 2.0 3.0 0.00 0.00 0.00 78 1024.7
20260901125702 76 210 2.0 3.0 0.00 0.00 0.00 78 1024.7
20260901125650 76 227 2.0 4.0 0.00 0.00 0.00 78 1024.7
20260901125631 76 216 2.0 3.0 0.00 0.00 0.00 78 1024.7
20260901125247 76 205 2.0 3.0 0.00 0.00 0.00 78 1024.7
20260901125223 76 223 2.0 3.0 0.00 0.00 0.00 78 1024.7
20260901125212 76 224 2.0 3.0 0.00 0.00 0.00 78 1024.7
20260901125008 76 226 2.0 4.0 0.00 0.00 0.00 78 1024.6
20260901125002 76 202 2.0 4.0 0.00 0.00 0.00 78 1024.6
20260901124949 76 224 2.0 4.0 0.00 0.00 0.00 78 1024.7
20260901124927 76 224 2.0 4.0 0.00 0.00 0.00 78 1024.7
20260901124726 76 224 2.0 4.0 0.00 0.00 0.00 78 1024.6
20260901124455 76 202 2.0 4.0 0.00 0.00 0.00 78 1024.6
20260901124342 76 202 2.0 5.0 0.00 0.00 0.00 78 1024.6
20260901124242 76 202 2.0 5.0 0.00 0.00 0.00 78 1024.6
20260901124142 76 201 2.0 5.0 0.00 0.00 0.00 78 1024.6
20260901124041 76 185 2.0 5.0 0.00 0.00 0.00 78 1024.6
20260901123941 76 222 2.0 5.0 0.00 0.00 0.00 78 1024.6
20260901123840 76 217 2.0 5.0 0.00 0.00 0.00 78 1024.6
20260901123740 76 213 2.0 5.0 0.00 0.00 0.00 78 1024.6
20260901123709 76 225 2.0 5.0 0.00 0.00 0.00 79 1024.5
20260901123658 76 188 2.0 5.0 0.00 0.00 0.00 78 1024.6
20260901123433 76 225 2.0 5.0 0.00 0.00 0.00 79 1024.4
20260901123332 76 225 2.0 4.0 0.00 0.00 0.00 79 1024.4
20260901123233 76 225 2.0 4.0 0.00 0.00 0.00 78 1024.4
20260901123202 76 244 2.0 4.0 0.00 0.00 0.00 78 1024.4
20260901123152 76 223 2.0 4.0 0.00 0.00 0.00 78 1024.4
20260901122929 76 215 2.0 4.0 0.00 0.00 0.00 78 1024.4
20260901122827 76 215 2.0 4.0 0.00 0.00 0.00 78 1024.4
20260901122801 76 249 2.0 5.0 0.00 0.00 0.00 78 1024.3
20260901122750 76 214 2.0 5.0 0.00 0.00 0.00 78 1024.4
20260901122526 76 204 2.0 5.0 0.00 0.00 0.00 78 1024.3
20260901122421 76 200 2.0 5.0 0.00 0.00 0.00 78 1024.3
20260901122323 76 200 2.0 5.0 0.00 0.00 0.00 78 1024.3
20260901122256 76 231 2.0 5.0 0.00 0.00 0.00 78 1024.3
20260901122243 76 200 2.0 5.0 0.00 0.00 0.00 78 1024.3
20260901122019 76 231 2.0 5.0 0.00 0.00 0.00 78 1024.3
20260901121921 76 219 2.0 5.0 0.00 0.00 0.00 78 1024.2
20260901121819 76 222 2.0 5.0 0.00 0.00 0.00 78 1024.3
20260901121719 76 227 2.0 5.0 0.00 0.00 0.00 78 1024.3
20260901121658 76 206 2.0 5.0 0.00 0.00 0.00 78 1024.2
20260901121652 76 206 2.0 5.0 0.00 0.00 0.00 78 1024.2
20260901121647 76 206 2.0 5.0 0.00 0.00 0.00 78 1024.2
20260901121635 76 196 2.0 5.0 0.00 0.00 0.00 78 1024.3
20260901121612 76 210 2.0 5.0 0.00 0.00 0.00 78 1024.2
20260901121447 76 207 2.0 5.0 0.00 0.00 0.00 78 1024.2
20260901121430 76 206 2.0 5.0 0.00 0.00 0.00 78 1024.2
20260901120918 76 206 2.0 5.0 0.00 0.00 0.00 78 1024.2
20260901120820 76 209 2.0 5.0 0.00 0.00 0.00 78 1024.2
20260901120752 76 240 2.0 5.0 0.00 0.00 0.00 78 1024.2
20260901120741 76 209 2.0 5.0 0.00 0.00 0.00 78 1024.2
20260901120515 76 223 2.0 4.0 0.00 0.00 0.00 78 1024.1
20260901120415 76 211 2.0 4.0 0.00 0.00 0.00 78 1024.1
20260901120347 76 227 2.0 4.0 0.00 0.00 0.00 78 1024.1
20260901120337 76 227 2.0 3.0 0.00 0.00 0.00 78 1024.2
20260901120109 76 202 2.0 4.0 0.00 0.00 0.00 78 1024.2
20260901120013 76 202 2.0 4.0 0.00 0.00 0.00 78 1024.1
20260901115910 76 203 2.0 4.0 0.00 0.00 0.00 78 1024.1
20260901115809 76 220 2.0 4.0 0.00 0.00 0.00 78 1024.1
20260901115710 76 234 2.0 4.0 0.00 0.00 0.00 77 1024.1
20260901115608 76 261 2.0 5.0 0.00 0.00 0.00 77 1024.0
20260901115508 76 281 2.0 6.0 0.00 0.00 0.00 77 1024.1
20260901115435 76 282 2.0 6.0 0.00 0.00 0.00 77 1024.0
20260901115428 76 281 2.0 6.0 0.00 0.00 0.00 77 1024.1
20260901115206 76 220 2.0 6.0 0.00 0.00 0.00 77 1024.0
20260901115108 76 211 2.0 6.0 0.00 0.00 0.00 77 1024.0
20260901115003 76 229 2.0 6.0 0.00 0.00 0.00 77 1023.9
20260901114901 76 211 2.0 6.0 0.00 0.00 0.00 77 1023.9
20260901114802 76 224 2.0 6.0 0.00 0.00 0.00 77 1023.9
20260901114702 76 211 2.0 6.0 0.00 0.00 0.00 77 1023.9
20260901114602 76 198 2.0 6.0 0.00 0.00 0.00 77 1023.9
20260901114455 76 242 2.0 6.0 0.00 0.00 0.00 77 1023.8
20260901114357 76 207 2.0 6.0 0.00 0.00 0.00 77 1023.8
20260901114256 76 202 2.0 6.0 0.00 0.00 0.00 77 1023.8
20260901114159 76 207 2.0 6.0 0.00 0.00 0.00 77 1023.8
20260901114126 76 278 2.0 6.0 0.00 0.00 0.00 77 1023.8
20260901114116 76 227 2.0 6.0 0.00 0.00 0.00 77 1023.8
20260901113855 76 251 2.0 5.0 0.00 0.00 0.00 77 1023.8
20260901113753 76 240 2.0 5.0 0.00 0.00 0.00 77 1023.7
20260901113659 76 190 2.0 5.0 0.00 0.00 0.00 77 1023.7
20260901113552 76 190 2.0 6.0 0.00 0.00 0.00 77 1023.7
20260901113452 76 220 2.0 6.0 0.00 0.00 0.00 77 1023.7
20260901113352 76 254 2.0 6.0 0.00 0.00 0.00 77 1023.7
20260901113252 76 247 2.0 6.0 0.00 0.00 0.00 77 1023.7
20260901113150 76 213 2.0 6.0 0.00 0.00 0.00 77 1023.7
20260901113125 76 215 2.0 6.0 0.00 0.00 0.00 77 1023.6
20260901113112 76 269 2.0 6.0 0.00 0.00 0.00 77 1023.7
20260901112849 76 205 2.0 6.0 0.00 0.00 0.00 77 1023.7
20260901112747 76 243 2.0 6.0 0.00 0.00 0.00 77 1023.6
20260901112648 76 284 2.0 6.0 0.00 0.00 0.00 77 1023.6
20260901112548 76 213 2.0 6.0 0.00 0.00 0.00 77 1023.6
20260901112537 76 238 2.0 6.0 0.00 0.00 0.00 77 1023.6
20260901112531 76 198 2.0 6.0 0.00 0.00 0.00 77 1023.6
20260901112515 76 223 2.0 6.0 0.00 0.00 0.00 77 1023.6
20260901112348 76 236 2.0 6.0 0.00 0.00 0.00 77 1023.6
20260901112327 76 236 2.0 6.0 0.00 0.00 0.00 77 1023.5
20260901111945 76 239 2.0 6.0 0.00 0.00 0.00 77 1023.5
20260901111850 76 194 2.0 4.0 0.00 0.00 0.00 77 1023.5
20260901111742 76 233 2.0 8.0 0.00 0.00 0.00 77 1023.5
20260901111641 76 205 2.0 8.0 0.00 0.00 0.00 77 1023.4
20260901111543 76 254 2.0 8.0 0.00 0.00 0.00 77 1023.5
20260901111506 76 283 2.0 8.0 0.00 0.00 0.00 77 1023.5
20260901111458 76 215 2.0 8.0 0.00 0.00 0.00 77 1023.5
20260901111238 76 193 2.0 8.0 0.00 0.00 0.00 77 1023.5
20260901111136 76 192 2.0 8.0 0.00 0.00 0.00 77 1023.5
20260901111109 76 218 3.0 8.0 0.00 0.00 0.00 77 1023.4
20260901111056 76 219 3.0 8.0 0.00 0.00 0.00 77 1023.4
20260901110834 76 218 2.0 8.0 0.00 0.00 0.00 77 1023.4
20260901110732 76 205 2.0 6.0 0.00 0.00 0.00 77 1023.4
20260901110634 76 204 2.0 6.0 0.00 0.00 0.00 77 1023.4
20260901110526 76 213 2.0 6.0 0.00 0.00 0.00 77 1023.4
20260901110454 76 200 2.0 6.0 0.00 0.00 0.00 77 1023.4
20260901110450 76 227 2.0 6.0 0.00 0.00 0.00 77 1023.2
20260901110438 76 214 2.0 6.0 0.00 0.00 0.00 77 1023.4
20260901110416 76 229 2.0 6.0 0.00 0.00 0.00 77 1023.4
20260901110023 76 229 2.0 6.0 0.00 0.00 0.00 77 1023.4
20260901105921 76 231 2.0 6.0 0.00 0.00 0.00 77 1023.2
20260901105856 76 250 2.0 4.0 0.00 0.00 0.00 77 1023.4
20260901105844 76 226 2.0 6.0 0.00 0.00 0.00 77 1023.4
20260901105622 76 235 2.0 5.0 0.00 0.00 0.00 77 1023.4
20260901105515 76 257 2.0 5.0 0.00 0.00 0.00 77 1023.4
20260901105450 76 220 2.0 5.0 0.00 0.00 0.00 77 1023.4
20260901105438 76 220 2.0 5.0 0.00 0.00 0.00 77 1023.2
20260901105214 76 248 2.0 5.0 0.00 0.00 0.00 77 1023.4
20260901105114 76 211 2.0 7.0 0.00 0.00 0.00 77 1023.2
20260901105013 76 214 2.0 7.0 0.00 0.00 0.00 77 1023.4
20260901104920 76 214 2.0 7.0 0.00 0.00 0.00 77 1023.4
20260901104812 76 212 2.0 7.0 0.00 0.00 0.00 77 1023.2
20260901104713 76 212 2.0 7.0 0.00 0.00 0.00 77 1023.2
20260901104613 76 200 2.0 7.0 0.00 0.00 0.00 77 1023.2
20260901104512 76 213 2.0 7.0 0.00 0.00 0.00 77 1023.2
20260901104410 76 213 2.0 7.0 0.00 0.00 0.00 77 1023.2
20260901104309 76 205 2.0 7.0 0.00 0.00 0.00 77 1023.2
20260901104209 76 205 2.0 7.0 0.00 0.00 0.00 77 1023.2
20260901104111 76 219 2.0 6.0 0.00 0.00 0.00 77 1023.1
20260901104016 76 190 2.0 6.0 0.00 0.00 0.00 77 1023.1
20260901103909 76 252 2.0 6.0 0.00 0.00 0.00 77 1023.2
20260901103809 76 252 2.0 6.0 0.00 0.00 0.00 77 1023.2
20260901103710 76 252 2.0 6.0 0.00 0.00 0.00 77 1023.1
20260901103609 76 259 3.0 6.0 0.00 0.00 0.00 77 1023.1
20260901103510 76 194 3.0 7.0 0.00 0.00 0.00 77 1023.1
20260901103408 76 218 3.0 7.0 0.00 0.00 0.00 77 1023.1
20260901103310 76 204 3.0 7.0 0.00 0.00 0.00 77 1023.0
20260901103208 76 200 3.0 7.0 0.00 0.00 0.00 77 1023.0
20260901103109 76 207 3.0 7.0 0.00 0.00 0.00 77 1023.1
20260901103010 76 211 3.0 7.0 0.00 0.00 0.00 77 1023.1
20260901102910 76 194 3.0 7.0 0.00 0.00 0.00 77 1023.1
20260901102810 76 225 3.0 7.0 0.00 0.00 0.00 77 1023.1
20260901102708 76 209 3.0 7.0 0.00 0.00 0.00 77 1023.1
20260901102641 76 210 3.0 6.0 0.00 0.00 0.00 77 1023.1
20260901102630 76 209 3.0 7.0 0.00 0.00 0.00 77 1023.1
20260901102406 76 209 3.0 6.0 0.00 0.00 0.00 77 1023.1
20260901102340 76 216 3.0 6.0 0.00 0.00 0.00 77 1023.1
20260901102330 76 203 3.0 6.0 0.00 0.00 0.00 77 1023.1
20260901102135 76 221 3.0 6.0 0.00 0.00 0.00 77 1023.1
20260901102126 76 211 3.0 6.0 0.00 0.00 0.00 77 1023.1
20260901101906 76 250 2.0 6.0 0.00 0.00 0.00 77 1023.2
20260901101807 76 206 2.0 6.0 0.00 0.00 0.00 77 1023.2
20260901101700 76 215 2.0 6.0 0.00 0.00 0.00 77 1023.1
20260901101640 76 210 2.0 6.0 0.00 0.00 0.00 77 1023.1
20260901101630 76 239 2.0 6.0 0.00 0.00 0.00 77 1023.2
20260901101400 76 210 2.0 6.0 0.00 0.00 0.00 77 1023.1
20260901101335 76 222 2.0 6.0 0.00 0.00 0.00 77 1023.1
20260901101325 76 221 2.0 6.0 0.00 0.00 0.00 77 1023.1
20260901101102 76 223 2.0 6.0 0.00 0.00 0.00 77 1023.1
20260901101001 76 232 2.0 6.0 0.00 0.00 0.00 77 1023.1
20260901100903 76 253 2.0 4.0 0.00 0.00 0.00 77 1023.1
20260901100802 75 220 2.0 4.0 0.00 0.00 0.00 77 1023.1
20260901100700 75 221 2.0 4.0 0.00 0.00 0.00 77 1023.1
20260901100650 75 209 2.0 4.0 0.00 0.00 0.00 77 1023.1
20260901100646 75 205 2.0 4.0 0.00 0.00 0.00 77 1023.1
20260901100625 75 221 2.0 4.0 0.00 0.00 0.00 77 1023.1
20260901100606 75 222 2.0 4.0 0.00 0.00 0.00 77 1023.1
20260901100321 75 205 2.0 4.0 0.00 0.00 0.00 77 1023.1
20260901100100 75 221 2.0 4.0 0.00 0.00 0.00 77 1023.2
20260901100000 76 221 2.0 4.0 0.00 0.00 0.00 77 1023.1
20260901095934 76 200 2.0 4.0 0.00 0.00 0.00 77 1023.1
20260901095925 76 200 2.0 4.0 0.00 0.00 0.00 77 1023.0
20260901095701 76 212 2.0 4.0 0.00 0.00 0.00 77 1023.2
20260901095600 76 211 2.0 4.0 0.00 0.00 0.00 77 1023.1
20260901095500 76 211 2.0 4.0 0.00 0.00 0.00 77 1023.2
20260901095401 76 211 2.0 4.0 0.00 0.00 0.00 77 1023.1
20260901095338 76 207 2.0 4.0 0.00 0.00 0.00 77 1023.1
20260901095324 76 211 2.0 4.0 0.00 0.00 0.00 77 1023.1
20260901095105 76 207 2.0 5.0 0.00 0.00 0.00 76 1023.1
20260901095002 76 206 2.0 5.0 0.00 0.00 0.00 76 1023.1
20260901094937 76 213 2.0 5.0 0.00 0.00 0.00 76 1023.1
20260901094918 76 206 2.0 5.0 0.00 0.00 0.00 76 1023.1
20260901094709 76 213 2.0 5.0 0.00 0.00 0.00 76 1023.0
20260901094601 76 214 2.0 5.0 0.00 0.00 0.00 76 1023.1
20260901094500 76 202 2.0 5.0 0.00 0.00 0.00 76 1023.2
20260901094402 76 209 2.0 5.0 0.00 0.00 0.00 76 1023.1
20260901094300 76 222 2.0 5.0 0.00 0.00 0.00 76 1023.1
20260901094201 76 219 2.0 7.0 0.00 0.00 0.00 76 1023.0
20260901094101 76 259 2.0 7.0 0.00 0.00 0.00 76 1023.1
20260901094000 76 247 2.0 7.0 0.00 0.00 0.00 76 1023.1
20260901093902 76 211 3.0 7.0 0.00 0.00 0.00 76 1023.1
20260901093802 76 211 2.0 7.0 0.00 0.00 0.00 76 1023.1
20260901093700 76 205 2.0 7.0 0.00 0.00 0.00 76 1023.1
20260901093601 76 205 3.0 7.0 0.00 0.00 0.00 76 1023.1
20260901093501 76 205 3.0 7.0 0.00 0.00 0.00 76 1023.1
20260901093453 76 204 2.0 7.0 0.00 0.00 0.00 76 1023.1
20260901093439 76 205 2.0 7.0 0.00 0.00 0.00 76 1023.0
20260901093205 76 215 2.0 5.0 0.00 0.00 0.00 76 1023.0
20260901093103 76 215 2.0 5.0 0.00 0.00 0.00 76 1023.1
20260901093010 76 207 2.0 5.0 0.00 0.00 0.00 76 1023.1
20260901092958 76 214 2.0 5.0 0.00 0.00 0.00 76 1023.1
20260901092952 76 207 2.0 5.0 0.00 0.00 0.00 76 1023.0
20260901092935 76 207 2.0 5.0 0.00 0.00 0.00 76 1023.1
20260901092558 76 210 2.0 5.0 0.00 0.00 0.00 76 1023.1
20260901092458 76 229 2.0 5.0 0.00 0.00 0.00 76 1023.0
20260901092358 76 240 2.0 5.0 0.00 0.00 0.00 76 1023.0
20260901092253 76 223 2.0 5.0 0.00 0.00 0.00 75 1023.0
20260901092153 76 221 2.0 3.0 0.00 0.00 0.00 75 1023.0
20260901092054 76 221 2.0 3.0 0.00 0.00 0.00 75 1023.0
20260901091954 76 221 2.0 3.0 0.00 0.00 0.00 75 1023.0
20260901091853 76 220 2.0 3.0 0.00 0.00 0.00 75 1023.1
20260901091751 76 220 2.0 5.0 0.00 0.00 0.00 75 1023.0
20260901091650 76 220 2.0 5.0 0.00 0.00 0.00 75 1023.0
20260901091552 76 220 2.0 5.0 0.00 0.00 0.00 75 1023.0
20260901091450 76 220 2.0 5.0 0.00 0.00 0.00 75 1023.0
20260901091347 76 221 2.0 5.0 0.00 0.00 0.00 75 1023.0
20260901091244 76 221 2.0 5.0 0.00 0.00 0.00 75 1023.0
20260901091146 76 221 2.0 5.0 0.00 0.00 0.00 75 1023.0
20260901091043 76 221 2.0 5.0 0.00 0.00 0.00 75 1022.9
20260901090943 76 213 2.0 5.0 0.00 0.00 0.00 75 1023.0
20260901090842 76 223 2.0 5.0 0.00 0.00 0.00 75 1023.0
20260901090734 76 238 2.0 5.0 0.00 0.00 0.00 75 1022.9
20260901090637 76 202 2.0 6.0 0.00 0.00 0.00 75 1022.9
20260901090532 76 198 2.0 6.0 0.00 0.00 0.00 75 1022.9
20260901090431 76 198 2.0 6.0 0.00 0.00 0.00 75 1022.9
20260901090331 76 210 2.0 6.0 0.00 0.00 0.00 75 1022.8
20260901090230 76 215 2.0 6.0 0.00 0.00 0.00 75 1022.9
20260901090132 76 204 2.0 6.0 0.00 0.00 0.00 75 1022.8
20260901090107 76 236 2.0 6.0 0.00 0.00 0.00 75 1022.9
20260901090056 76 200 2.0 6.0 0.00 0.00 0.00 75 1022.8
20260901085836 76 225 2.0 6.0 0.00 0.00 0.00 75 1022.9
20260901085730 76 221 2.0 6.0 0.00 0.00 0.00 75 1022.9
20260901085630 76 233 2.0 5.0 0.00 0.00 0.00 75 1022.9
20260901085533 76 207 2.0 5.0 0.00 0.00 0.00 75 1022.8
20260901085425 76 209 2.0 6.0 0.00 0.00 0.00 75 1022.9
20260901085327 76 217 2.0 6.0 0.00 0.00 0.00 75 1022.9
20260901085309 76 221 2.0 6.0 0.00 0.00 0.00 75 1022.8
20260901085254 76 221 2.0 6.0 0.00 0.00 0.00 75 1022.8
20260901085024 76 220 2.0 6.0 0.00 0.00 0.00 75 1022.8
20260901084924 76 236 2.0 6.0 0.00 0.00 0.00 75 1022.8
20260901084825 76 247 2.0 6.0 0.00 0.00 0.00 75 1022.8
20260901084725 76 209 2.0 6.0 0.00 0.00 0.00 75 1022.8
20260901084658 76 209 2.0 6.0 0.00 0.00 0.00 75 1022.9
20260901084647 76 208 2.0 6.0 0.00 0.00 0.00 75 1022.9
20260901084455 76 205 2.0 8.0 0.00 0.00 0.00 75 1022.7
20260901084422 76 239 2.0 6.0 0.00 0.00 0.00 75 1022.8
20260901084414 76 221 2.0 6.0 0.00 0.00 0.00 75 1022.9
20260901084409 76 217 2.0 6.0 0.00 0.00 0.00 75 1022.8
20260901084404 76 232 2.0 8.0 0.00 0.00 0.00 75 1022.8
20260901084355 76 219 2.0 8.0 0.00 0.00 0.00 75 1022.7
20260901084322 76 239 2.0 6.0 0.00 0.00 0.00 75 1022.8
20260901084316 76 186 2.0 8.0 0.00 0.00 0.00 75 1022.7
20260901084310 76 193 2.0 8.0 0.00 0.00 0.00 75 1022.8
20260901084255 76 219 2.0 6.0 0.00 0.00 0.00 75 1022.8
20260901084210 76 242 2.0 6.0 0.00 0.00 0.00 75 1022.8
20260901084141 76 221 2.0 6.0 0.00 0.00 0.00 75 1022.8
20260901083931 76 211 2.0 6.0 0.00 0.00 0.00 75 1022.8
20260901083720 76 230 2.0 6.0 0.00 0.00 0.00 75 1022.8
20260901083648 76 230 2.0 6.0 0.00 0.00 0.00 75 1022.8
20260901083211 76 260 2.0 8.0 0.00 0.00 0.00 75 1022.7
20260901083203 76 205 2.0 8.0 0.00 0.00 0.00 75 1022.7
20260901083143 76 186 2.0 8.0 0.00 0.00 0.00 75 1022.7
20260901082859 76 209 2.0 8.0 0.00 0.00 0.00 75 1022.8
20260901082505 76 202 2.0 8.0 0.00 0.00 0.00 75 1022.8
20260901082403 76 204 2.0 7.0 0.00 0.00 0.00 75 1022.8
20260901082301 76 245 2.0 7.0 0.00 0.00 0.00 75 1022.8
20260901082225 76 200 2.0 7.0 0.00 0.00 0.00 76 1022.8
20260901082201 76 200 2.0 7.0 0.00 0.00 0.00 75 1022.8
20260901082133 76 200 2.0 7.0 0.00 0.00 0.00 75 1022.8
20260901081909 76 255 2.0 5.0 0.00 0.00 0.00 76 1022.8
20260901081853 76 232 2.0 5.0 0.00 0.00 0.00 75 1022.8
20260901081831 76 256 2.0 5.0 0.00 0.00 0.00 76 1022.7
20260901081615 76 225 2.0 5.0 0.00 0.00 0.00 76 1022.7
20260901081557 76 201 2.0 5.0 0.00 0.00 0.00 75 1022.7
20260901081533 76 225 2.0 5.0 0.00 0.00 0.00 75 1022.7
20260901081255 76 207 2.0 3.0 0.00 0.00 0.00 76 1022.7
20260901081151 76 207 2.0 3.0 0.00 0.00 0.00 76 1022.7
20260901081053 76 207 2.0 3.0 0.00 0.00 0.00 76 1022.7
20260901081014 76 207 2.0 3.0 0.00 0.00 0.00 75 1022.7
20260901080958 76 207 2.0 3.0 0.00 0.00 0.00 76 1022.7
20260901080935 76 207 2.0 3.0 0.00 0.00 0.00 76 1022.7
20260901080810 76 207 2.0 3.0 0.00 0.00 0.00 75 1022.7
20260901080540 76 207 2.0 3.0 0.00 0.00 0.00 75 1022.8
20260901080438 76 207 2.0 3.0 0.00 0.00 0.00 74 1022.7
20260901080408 76 207 2.0 3.0 0.00 0.00 0.00 75 1022.7
20260901080357 76 207 2.0 3.0 0.00 0.00 0.00 75 1022.7
20260901080137 76 209 2.0 3.0 0.00 0.00 0.00 75 1022.7
20260901080036 76 209 2.0 3.0 0.00 0.00 0.00 75 1022.7
20260901075930 76 212 2.0 3.0 0.00 0.00 0.00 75 1022.7
20260901075830 76 212 2.0 3.0 0.00 0.00 0.00 76 1022.7
20260901075732 76 212 2.0 3.0 0.00 0.00 0.00 75 1022.7
20260901075631 76 212 2.0 3.0 0.00 0.00 0.00 77 1022.7
20260901075526 76 212 2.0 3.0 0.00 0.00 0.00 76 1022.8
20260901075448 76 211 2.0 3.0 0.00 0.00 0.00 77 1022.8
20260901075443 76 211 2.0 3.0 0.00 0.00 0.00 77 1022.7
20260901075432 76 212 2.0 3.0 0.00 0.00 0.00 77 1022.8
20260901075409 76 211 2.0 3.0 0.00 0.00 0.00 77 1022.8
20260901075020 76 211 2.0 3.0 0.00 0.00 0.00 77 1022.7
20260901074921 76 211 2.0 3.0 0.00 0.00 0.00 77 1022.8
20260901074821 75 211 2.0 3.0 0.00 0.00 0.00 77 1022.8
20260901074720 76 211 2.0 3.0 0.00 0.00 0.00 77 1022.8
20260901074620 75 211 2.0 3.0 0.00 0.00 0.00 77 1022.8
20260901074556 75 211 2.0 3.0 0.00 0.00 0.00 77 1022.8
20260901074541 75 211 2.0 3.0 0.00 0.00 0.00 77 1022.8
20260901074321 75 211 2.0 3.0 0.00 0.00 0.00 77 1022.8
20260901074218 75 211 2.0 3.0 0.00 0.00 0.00 77 1022.8
20260901074115 75 211 2.0 3.0 0.00 0.00 0.00 77 1022.8
20260901074048 75 211 1.0 3.0 0.00 0.00 0.00 78 1022.8
20260901074037 75 211 2.0 3.0 0.00 0.00 0.00 78 1022.8
20260901073814 75 211 1.0 3.0 0.00 0.00 0.00 78 1022.7
20260901073712 75 211 1.0 3.0 0.00 0.00 0.00 78 1022.8
20260901073609 75 211 1.0 3.0 0.00 0.00 0.00 78 1022.7
20260901073533 74 211 1.0 3.0 0.00 0.00 0.00 78 1022.7
20260901073519 75 211 1.0 3.0 0.00 0.00 0.00 78 1022.7
20260901073457 75 211 1.0 3.0 0.00 0.00 0.00 78 1022.8
20260901073331 74 211 1.0 3.0 0.00 0.00 0.00 78 1022.7
20260901073108 74 211 1.0 3.0 0.00 0.00 0.00 78 1022.7
20260901073008 74 211 1.0 3.0 0.00 0.00 0.00 78 1022.6
20260901072906 74 211 1.0 3.0 0.00 0.00 0.00 78 1022.7
20260901072806 74 211 1.0 3.0 0.00 0.00 0.00 78 1022.7
20260901072703 74 211 1.0 3.0 0.00 0.00 0.00 78 1022.7
20260901072601 74 211 1.0 3.0 0.00 0.00 0.00 78 1022.7
20260901072500 74 218 1.0 3.0 0.00 0.00 0.00 78 1022.7
20260901072400 74 218 1.0 3.0 0.00 0.00 0.00 77 1022.7
20260901072332 74 218 2.0 3.0 0.00 0.00 0.00 77 1022.8
20260901072321 74 218 2.0 3.0 0.00 0.00 0.00 77 1022.8
20260901072055 74 218 2.0 4.0 0.00 0.00 0.00 77 1022.7
20260901071954 74 218 2.0 4.0 0.00 0.00 0.00 77 1022.8
20260901071856 74 218 2.0 4.0 0.00 0.00 0.00 77 1022.7
20260901071753 74 218 2.0 4.0 0.00 0.00 0.00 77 1022.8
20260901071651 74 218 2.0 4.0 0.00 0.00 0.00 77 1022.8
20260901071557 74 218 2.0 4.0 0.00 0.00 0.00 77 1022.7
20260901071449 74 210 2.0 4.0 0.00 0.00 0.00 77 1022.7
20260901071348 74 214 2.0 4.0 0.00 0.00 0.00 77 1022.7
20260901071246 74 216 2.0 4.0 0.00 0.00 0.00 77 1022.7
20260901071146 74 231 2.0 4.0 0.00 0.00 0.00 77 1022.7
20260901071044 74 238 1.0 4.0 0.00 0.00 0.00 77 1022.7
20260901071025 74 238 1.0 4.0 0.00 0.00 0.00 77 1022.8
20260901071009 74 238 1.0 4.0 0.00 0.00 0.00 77 1022.8
20260901070745 74 238 1.0 4.0 0.00 0.00 0.00 77 1022.8
20260901070642 74 238 1.0 4.0 0.00 0.00 0.00 78 1022.8
20260901070609 74 206 1.0 2.0 0.00 0.00 0.00 78 1022.9
20260901070558 74 238 1.0 4.0 0.00 0.00 0.00 78 1022.8
20260901070530 74 208 1.0 2.0 0.00 0.00 0.00 78 1022.8
20260901070407 74 208 1.0 2.0 0.00 0.00 0.00 78 1022.9
20260901070141 74 206 1.0 2.0 0.00 0.00 0.00 78 1022.9
20260901070044 74 206 1.0 2.0 0.00 0.00 0.00 78 1022.9
20260901065938 74 206 1.0 2.0 0.00 0.00 0.00 78 1022.8
20260901065837 74 206 1.0 2.0 0.00 0.00 0.00 78 1022.9
20260901065734 74 206 1.0 2.0 0.00 0.00 0.00 78 1022.9
20260901065703 74 206 1.0 2.0 0.00 0.00 0.00 78 1022.9
20260901065654 74 206 1.0 2.0 0.00 0.00 0.00 78 1022.9
20260901065431 74 206 1.0 2.0 0.00 0.00 0.00 79 1022.9
20260901065331 74 206 1.0 2.0 0.00 0.00 0.00 79 1022.9
20260901065224 74 206 1.0 2.0 0.00 0.00 0.00 79 1022.9
20260901065124 74 206 1.0 2.0 0.00 0.00 0.00 79 1022.9
20260901065027 74 206 1.0 3.0 0.00 0.00 0.00 79 1022.9
20260901064924 74 206 1.0 3.0 0.00 0.00 0.00 79 1023.0
20260901064825 74 206 1.0 3.0 0.00 0.00 0.00 79 1023.0
20260901064715 74 206 1.0 3.0 0.00 0.00 0.00 79 1023.0
20260901064654 74 206 1.0 3.0 0.00 0.00 0.00 80 1022.9
20260901064638 74 206 1.0 3.0 0.00 0.00 0.00 79 1023.0
20260901064414 74 206 2.0 3.0 0.00 0.00 0.00 80 1022.9
20260901064310 74 205 2.0 3.0 0.00 0.00 0.00 80 1022.9
20260901064256 74 223 1.0 3.0 0.00 0.00 0.00 79 1023.0
20260901064251 74 223 1.0 3.0 0.00 0.00 0.00 79 1022.9
20260901064245 74 223 1.0 3.0 0.00 0.00 0.00 79 1022.9
20260901064241 74 223 1.0 3.0 0.00 0.00 0.00 79 1022.9
20260901064224 74 205 1.0 3.0 0.00 0.00 0.00 80 1022.9
20260901064203 74 207 1.0 3.0 0.00 0.00 0.00 80 1022.9
20260901064139 74 223 1.0 3.0 0.00 0.00 0.00 80 1022.9
20260901063502 74 223 1.0 3.0 0.00 0.00 0.00 79 1022.9
20260901063401 74 223 1.0 3.0 0.00 0.00 0.00 79 1023.0
20260901063300 74 224 1.0 3.0 0.00 0.00 0.00 79 1023.0
20260901063231 74 224 1.0 3.0 0.00 0.00 0.00 79 1023.0
20260901063215 74 224 1.0 3.0 0.00 0.00 0.00 80 1023.0
20260901062950 74 224 1.0 3.0 0.00 0.00 0.00 79 1023.0
20260901062849 74 224 1.0 3.0 0.00 0.00 0.00 79 1023.0
20260901062750 74 224 1.0 3.0 0.00 0.00 0.00 79 1023.0
20260901062648 74 225 1.0 3.0 0.00 0.00 0.00 79 1023.0
20260901062619 74 225 1.0 5.0 0.00 0.00 0.00 79 1023.1
20260901062609 74 225 1.0 5.0 0.00 0.00 0.00 79 1023.1
20260901062345 74 225 1.0 5.0 0.00 0.00 0.00 79 1023.1
20260901062244 74 223 1.0 5.0 0.00 0.00 0.00 79 1023.0
20260901062138 74 223 1.0 5.0 0.00 0.00 0.00 79 1023.1
20260901062107 74 227 1.0 5.0 0.00 0.00 0.00 79 1023.0
20260901061940 74 227 1.0 5.0 0.00 0.00 0.00 79 1023.1
20260901061838 74 227 1.0 5.0 0.00 0.00 0.00 80 1023.0
20260901061740 74 227 1.0 5.0 0.00 0.00 0.00 80 1023.1
20260901061705 74 229 1.0 3.0 0.00 0.00 0.00 80 1023.1
20260901061650 74 196 1.0 5.0 0.00 0.00 0.00 80 1023.1
20260901061423 74 205 1.0 3.0 0.00 0.00 0.00 79 1023.1
20260901061324 74 211 1.0 3.0 0.00 0.00 0.00 79 1023.1
20260901061223 74 211 1.0 3.0 0.00 0.00 0.00 79 1023.1
20260901061116 74 211 1.0 3.0 0.00 0.00 0.00 79 1023.1
20260901061019 74 211 1.0 3.0 0.00 0.00 0.00 79 1023.1
20260901060918 74 211 1.0 3.0 0.00 0.00 0.00 79 1023.1
20260901060820 74 207 1.0 3.0 0.00 0.00 0.00 79 1023.1
20260901060717 74 207 1.0 3.0 0.00 0.00 0.00 79 1023.1
20260901060612 74 207 1.0 3.0 0.00 0.00 0.00 80 1023.1
20260901060600 74 209 1.0 3.0 0.00 0.00 0.00 80 1023.2
20260901060550 74 209 1.0 3.0 0.00 0.00 0.00 80 1023.1
20260901060536 74 207 1.0 3.0 0.00 0.00 0.00 80 1023.1
20260901060506 74 207 1.0 3.0 0.00 0.00 0.00 80 1023.1
20260901060116 74 209 1.0 3.0 0.00 0.00 0.00 80 1023.1
20260901060014 74 202 1.0 3.0 0.00 0.00 0.00 80 1023.2
20260901055910 74 202 1.0 3.0 0.00 0.00 0.00 80 1023.2
20260901055811 74 202 1.0 3.0 0.00 0.00 0.00 80 1023.2
20260901055711 74 202 1.0 3.0 0.00 0.00 0.00 80 1023.2
20260901055613 74 202 1.0 3.0 0.00 0.00 0.00 80 1023.1
20260901055520 74 200 1.0 3.0 0.00 0.00 0.00 80 1023.1
20260901055411 75 200 1.0 3.0 0.00 0.00 0.00 80 1023.2
20260901055308 75 200 1.0 3.0 0.00 0.00 0.00 80 1023.1
20260901055207 74 200 1.0 3.0 0.00 0.00 0.00 80 1023.1
20260901055108 75 195 1.0 3.0 0.00 0.00 0.00 80 1023.2
20260901055003 74 195 1.0 3.0 0.00 0.00 0.00 80 1023.1
20260901054905 75 195 1.0 3.0 0.00 0.00 0.00 80 1023.2
20260901054838 75 216 1.0 3.0 0.00 0.00 0.00 80 1023.2
20260901054827 75 195 1.0 3.0 0.00 0.00 0.00 80 1023.2
20260901054601 75 216 1.0 3.0 0.00 0.00 0.00 80 1023.1
20260901054459 75 216 1.0 4.0 0.00 0.00 0.00 80 1023.2
20260901054402 75 174 1.0 4.0 0.00 0.00 0.00 80 1023.2
20260901054258 75 214 1.0 4.0 0.00 0.00 0.00 80 1023.1
20260901054228 75 178 1.0 4.0 0.00 0.00 0.00 80 1023.0
20260901054217 75 178 1.0 4.0 0.00 0.00 0.00 80 1023.2
20260901054022 75 178 1.0 4.0 0.00 0.00 0.00 80 1023.0
20260901054012 75 178 1.0 4.0 0.00 0.00 0.00 80 1023.1
20260901053747 75 178 1.0 4.0 0.00 0.00 0.00 80 1023.2
20260901053645 75 208 1.0 4.0 0.00 0.00 0.00 80 1023.1
20260901053546 75 209 1.0 4.0 0.00 0.00 0.00 80 1023.1
20260901053446 75 218 1.0 3.0 0.00 0.00 0.00 80 1023.1
20260901053348 75 212 1.0 3.0 0.00 0.00 0.00 80 1023.1
20260901053244 75 213 1.0 3.0 0.00 0.00 0.00 80 1023.1
20260901053144 75 200 1.0 3.0 0.00 0.00 0.00 80 1023.1
20260901053042 75 200 1.0 5.0 0.00 0.00 0.00 80 1023.2
20260901053017 75 200 1.0 5.0 0.00 0.00 0.00 80 1023.2
20260901053005 75 200 1.0 5.0 0.00 0.00 0.00 80 1023.1
20260901052808 75 200 1.0 5.0 0.00 0.00 0.00 80 1023.2
20260901052758 75 200 1.0 5.0 0.00 0.00 0.00 80 1023.2
20260901052538 75 208 1.0 5.0 0.00 0.00 0.00 80 1023.1
20260901052504 75 208 1.0 5.0 0.00 0.00 0.00 80 1023.2
20260901052402 75 213 2.0 7.0 0.00 0.00 0.00 80 1023.2
20260901052353 75 213 2.0 7.0 0.00 0.00 0.00 80 1023.2
20260901052132 75 213 2.0 7.0 0.00 0.00 0.00 80 1023.4
20260901052037 75 217 2.0 7.0 0.00 0.00 0.00 80 1023.4
20260901051932 75 221 2.0 7.0 0.00 0.00 0.00 80 1023.2
20260901051832 75 216 2.0 7.0 0.00 0.00 0.00 80 1023.2
20260901051729 75 236 2.0 7.0 0.00 0.00 0.00 80 1023.2
20260901051630 75 236 2.0 7.0 0.00 0.00 0.00 81 1023.6
20260901051527 75 185 2.0 7.0 0.00 0.00 0.00 81 1023.2
20260901051429 75 238 2.0 7.0 0.00 0.00 0.00 81 1023.4
20260901051328 75 213 1.0 5.0 0.00 0.00 0.00 81 1023.2
20260901051230 75 236 1.0 5.0 0.00 0.00 0.00 81 1023.2
20260901051204 75 250 2.0 5.0 0.00 0.00 0.00 81 1023.2
20260901051149 75 177 1.0 5.0 0.00 0.00 0.00 80 1023.2
20260901050924 75 182 2.0 6.0 0.00 0.00 0.00 81 1023.2
20260901050825 75 193 2.0 7.0 0.00 0.00 0.00 81 1023.2
20260901050754 75 254 2.0 7.0 0.00 0.00 0.00 81 1023.2
20260901050743 75 251 2.0 7.0 0.00 0.00 0.00 81 1023.2
20260901050516 75 246 2.0 7.0 0.00 0.00 0.00 81 1023.2
20260901050425 75 242 2.0 7.0 0.00 0.00 0.00 81 1023.2
20260901050340 75 194 2.0 7.0 0.00 0.00 0.00 81 1023.2
20260901050334 75 188 2.0 7.0 0.00 0.00 0.00 81 1023.2
20260901050321 75 192 2.0 7.0 0.00 0.00 0.00 81 1023.2
20260901050257 75 191 2.0 7.0 0.00 0.00 0.00 81 1023.2
20260901045910 75 211 2.0 6.0 0.00 0.00 0.00 81 1023.2
20260901045808 75 211 2.0 6.0 0.00 0.00 0.00 81 1023.2
20260901045736 75 179 2.0 6.0 0.00 0.00 0.00 81 1023.1
20260901045731 75 230 1.0 6.0 0.00 0.00 0.00 81 1023.2
20260901045714 75 211 2.0 6.0 0.00 0.00 0.00 80 1023.2
20260901045650 75 210 2.0 6.0 0.00 0.00 0.00 81 1023.2
20260901045306 75 222 1.0 6.0 0.00 0.00 0.00 81 1023.2
20260901045209 75 222 1.0 6.0 0.00 0.00 0.00 81 1023.1
20260901045106 75 170 1.0 6.0 0.00 0.00 0.00 81 1023.1
20260901045004 75 227 1.0 5.0 0.00 0.00 0.00 81 1023.2
20260901044907 75 213 1.0 4.0 0.00 0.00 0.00 80 1023.2
20260901044803 75 213 2.0 5.0 0.00 0.00 0.00 80 1023.2
20260901044703 75 222 2.0 6.0 0.00 0.00 0.00 80 1023.2
20260901044604 75 222 2.0 6.0 0.00 0.00 0.00 80 1023.2
20260901044559 75 188 2.0 6.0 0.00 0.00 0.00 80 1023.2
20260901044533 75 223 2.0 6.0 0.00 0.00 0.00 80 1023.2
20260901044258 75 188 2.0 6.0 0.00 0.00 0.00 80 1023.2
20260901044157 75 242 2.0 6.0 0.00 0.00 0.00 80 1023.2
20260901044058 75 250 2.0 6.0 0.00 0.00 0.00 80 1023.2
20260901043958 75 250 2.0 6.0 0.00 0.00 0.00 80 1023.2
20260901043856 75 212 2.0 6.0 0.00 0.00 0.00 80 1023.1
20260901043848 75 179 1.0 4.0 0.00 0.00 0.00 80 1023.2
20260901043842 75 214 2.0 4.0 0.00 0.00 0.00 80 1023.2
20260901043823 75 179 2.0 6.0 0.00 0.00 0.00 80 1023.2
20260901043804 75 184 2.0 4.0 0.00 0.00 0.00 80 1023.2
20260901043503 75 179 1.0 4.0 0.00 0.00 0.00 80 1023.2
20260901043349 75 179 1.0 4.0 0.00 0.00 0.00 80 1023.2
20260901043245 75 209 1.0 4.0 0.00 0.00 0.00 80 1023.2
20260901043235 76 202 1.0 4.0 0.00 0.00 0.00 79 1023.2
20260901043216 76 202 1.0 4.0 0.00 0.00 0.00 80 1023.2
20260901042945 76 169 1.0 4.0 0.00 0.00 0.00 79 1023.2
20260901042846 76 176 1.0 4.0 0.00 0.00 0.00 79 1023.2
20260901042745 76 171 1.0 4.0 0.00 0.00 0.00 79 1023.2
20260901042646 76 171 1.0 4.0 0.00 0.00 0.00 79 1023.2
20260901042544 76 210 1.0 5.0 0.00 0.00 0.00 79 1023.2
20260901042443 76 185 1.0 5.0 0.00 0.00 0.00 79 1023.2
20260901042343 76 185 2.0 5.0 0.00 0.00 0.00 79 1023.1
20260901042242 76 185 2.0 5.0 0.00 0.00 0.00 79 1023.1
20260901042141 76 224 2.0 6.0 0.00 0.00 0.00 79 1023.2
20260901042038 76 224 2.0 6.0 0.00 0.00 0.00 78 1023.2
20260901041937 76 245 2.0 6.0 0.00 0.00 0.00 78 1023.2
20260901041839 76 252 2.0 6.0 0.00 0.00 0.00 78 1023.2
20260901041735 76 252 2.0 6.0 0.00 0.00 0.00 78 1023.1
20260901041635 76 252 2.0 6.0 0.00 0.00 0.00 78 1023.1
20260901041534 76 186 2.0 6.0 0.00 0.00 0.00 78 1023.1
20260901041434 76 186 2.0 6.0 0.00 0.00 0.00 78 1023.2
20260901041333 76 198 2.0 6.0 0.00 0.00 0.00 78 1023.1
20260901041234 76 200 1.0 5.0 0.00 0.00 0.00 78 1023.1
20260901041208 76 174 1.0 5.0 0.00 0.00 0.00 77 1023.2
20260901041156 76 194 1.0 5.0 0.00 0.00 0.00 78 1023.1
20260901040935 77 187 1.0 5.0 0.00 0.00 0.00 77 1023.2
20260901040832 77 173 1.0 5.0 0.00 0.00 0.00 77 1023.2
20260901040729 77 188 1.0 4.0 0.00 0.00 0.00 77 1023.2
20260901040621 77 188 1.0 4.0 0.00 0.00 0.00 77 1023.2
20260901040521 77 180 1.0 4.0 0.00 0.00 0.00 77 1023.2
20260901040421 77 179 1.0 4.0 0.00 0.00 0.00 77 1023.2
20260901040322 77 178 1.0 5.0 0.00 0.00 0.00 76 1023.2
20260901040222 77 178 2.0 5.0 0.00 0.00 0.00 76 1023.1
20260901040121 77 220 2.0 6.0 0.00 0.00 0.00 76 1023.1
20260901040020 77 355 2.0 6.0 0.00 0.00 0.00 76 1023.1
20260901035920 77 184 2.0 6.0 0.00 0.00 0.00 76 1023.1
20260901035820 77 207 2.0 6.0 0.00 0.00 0.00 76 1023.1
20260901035721 77 194 2.0 6.0 0.00 0.00 0.00 76 1023.1
20260901035621 77 251 2.0 6.0 0.00 0.00 0.00 76 1023.1
20260901035519 77 170 2.0 6.0 0.00 0.00 0.00 75 1023.1
20260901035420 77 170 2.0 6.0 0.00 0.00 0.00 75 1023.1
20260901035318 77 172 2.0 6.0 0.00 0.00 0.00 75 1023.1
20260901035252 78 182 2.0 5.0 0.00 0.00 0.00 75 1023.1
20260901035241 77 162 2.0 6.0 0.00 0.00 0.00 75 1023.1
20260901035053 78 115 1.0 5.0 0.00 0.00 0.00 75 1023.1
20260901035047 78 193 1.0 5.0 0.00 0.00 0.00 75 1023.0
20260901035042 78 129 1.0 5.0 0.00 0.00 0.00 75 1023.1
20260901035038 78 121 1.0 5.0 0.00 0.00 0.00 75 1023.0
20260901035025 78 159 2.0 5.0 0.00 0.00 0.00 75 1023.1
20260901035006 78 188 2.0 5.0 0.00 0.00 0.00 75 1023.0
20260901034939 78 188 1.0 5.0 0.00 0.00 0.00 75 1023.1
20260901034307 78 165 1.0 5.0 0.00 0.00 0.00 75 1023.1
20260901034207 78 192 1.0 5.0 0.00 0.00 0.00 75 1023.1
20260901034138 78 112 1.0 5.0 0.00 0.00 0.00 75 1023.0
20260901034127 78 187 1.0 5.0 0.00 0.00 0.00 75 1023.0
20260901033858 78 103 1.0 5.0 0.00 0.00 0.00 74 1023.0
20260901033800 78 103 1.0 5.0 0.00 0.00 0.00 74 1023.0
20260901033702 78 176 1.0 5.0 0.00 0.00 0.00 75 1023.0
20260901033557 78 176 1.0 5.0 0.00 0.00 0.00 74 1023.0
20260901033456 78 83 1.0 5.0 0.00 0.00 0.00 74 1023.0
20260901033356 78 198 1.0 5.0 0.00 0.00 0.00 74 1023.0
20260901033256 78 216 1.0 5.0 0.00 0.00 0.00 74 1022.9
20260901033158 78 221 1.0 5.0 0.00 0.00 0.00 74 1023.0
20260901033058 78 183 1.0 5.0 0.00 0.00 0.00 74 1022.9
20260901032958 78 179 1.0 5.0 0.00 0.00 0.00 74 1022.9
20260901032855 78 186 1.0 5.0 0.00 0.00 0.00 74 1022.9
20260901032756 78 186 2.0 5.0 0.00 0.00 0.00 74 1022.8
20260901032651 78 186 2.0 5.0 0.00 0.00 0.00 74 1022.8
20260901032611 77 224 1.0 5.0 0.00 0.00 0.00 74 1022.9
20260901032607 78 178 1.0 5.0 0.00 0.00 0.00 74 1022.9
20260901032552 78 170 1.0 5.0 0.00 0.00 0.00 74 1022.9
20260901032546 78 178 1.0 5.0 0.00 0.00 0.00 74 1022.9
20260901032527 78 148 1.0 5.0 0.00 0.00 0.00 74 1022.8
20260901032342 78 227 1.0 5.0 0.00 0.00 0.00 74 1022.8
20260901031940 78 177 1.0 8.0 0.00 0.00 0.00 74 1022.8
20260901031914 78 131 1.0 8.0 0.00 0.00 0.00 74 1022.9
20260901031900 78 215 1.0 8.0 0.00 0.00 0.00 74 1022.8
20260901031647 78 190 2.0 8.0 0.00 0.00 0.00 74 1022.9
20260901031536 78 190 2.0 8.0 0.00 0.00 0.00 74 1022.9
20260901031437 78 192 2.0 8.0 0.00 0.00 0.00 74 1022.8
20260901031337 78 239 2.0 8.0 0.00 0.00 0.00 74 1022.9
20260901031308 78 239 2.0 8.0 0.00 0.00 0.00 74 1022.9
20260901031257 78 239 2.0 8.0 0.00 0.00 0.00 74 1022.9
20260901031108 78 186 2.0 7.0 0.00 0.00 0.00 74 1022.9
20260901031058 78 183 2.0 8.0 0.00 0.00 0.00 74 1022.9
20260901030834 78 142 2.0 7.0 0.00 0.00 0.00 74 1022.9
20260901030732 78 99 1.0 7.0 0.00 0.00 0.00 74 1022.9
20260901030632 78 184 1.0 7.0 0.00 0.00 0.00 74 1022.9
20260901030552 78 199 1.0 6.0 0.00 0.00 0.00 74 1022.9
20260901030548 78 191 1.0 3.0 0.00 0.00 0.00 74 1022.9
20260901030535 78 182 1.0 7.0 0.00 0.00 0.00 73 1022.9
20260901030511 78 220 1.0 7.0 0.00 0.00 0.00 74 1022.9
20260901030129 78 191 1.0 3.0 0.00 0.00 0.00 74 1023.0
20260901030030 78 192 1.0 3.0 0.00 0.00 0.00 74 1023.0
20260901025929 78 188 1.0 3.0 0.00 0.00 0.00 74 1023.0
20260901025830 78 181 1.0 3.0 0.00 0.00 0.00 74 1022.9
20260901025725 78 136 1.0 3.0 0.00 0.00 0.00 73 1022.9
20260901025625 78 137 1.0 3.0 0.00 0.00 0.00 73 1023.0
20260901025526 78 113 1.0 3.0 0.00 0.00 0.00 73 1023.0
20260901025431 78 167 1.0 6.0 0.00 0.00 0.00 73 1022.9
20260901025325 78 160 1.0 7.0 0.00 0.00 0.00 73 1023.0
20260901025226 78 161 1.0 7.0 0.00 0.00 0.00 73 1022.9
20260901025125 78 161 1.0 7.0 0.00 0.00 0.00 73 1023.0
20260901025026 78 159 2.0 7.0 0.00 0.00 0.00 73 1022.9
20260901024925 78 157 2.0 7.0 0.00 0.00 0.00 73 1022.9
20260901024825 78 157 2.0 7.0 0.00 0.00 0.00 74 1023.0
20260901024726 78 177 2.0 7.0 0.00 0.00 0.00 73 1023.0
20260901024625 78 71 2.0 7.0 0.00 0.00 0.00 73 1022.9
20260901024525 78 171 2.0 7.0 0.00 0.00 0.00 73 1022.9
20260901024425 78 164 1.0 7.0 0.00 0.00 0.00 73 1022.9
20260901024325 78 186 1.0 6.0 0.00 0.00 0.00 73 1022.9
20260901024226 78 199 1.0 6.0 0.00 0.00 0.00 73 1022.9
20260901024124 78 203 1.0 6.0 0.00 0.00 0.00 73 1022.9
20260901024025 78 244 1.0 6.0 0.00 0.00 0.00 73 1022.9
20260901023926 78 121 1.0 6.0 0.00 0.00 0.00 72 1022.9
20260901023826 79 240 1.0 6.0 0.00 0.00 0.00 72 1022.9
20260901023724 79 204 1.0 6.0 0.00 0.00 0.00 72 1022.9
20260901023628 79 202 1.0 6.0 0.00 0.00 0.00 72 1022.9
20260901023525 79 82 1.0 6.0 0.00 0.00 0.00 72 1022.9
20260901023501 79 38 1.0 6.0 0.00 0.00 0.00 71 1022.9
20260901023447 79 80 1.0 6.0 0.00 0.00 0.00 72 1022.9
20260901023256 79 174 1.0 6.0 0.00 0.00 0.00 71 1022.9
20260901023247 79 83 1.0 6.0 0.00 0.00 0.00 71 1022.9
20260901023021 79 184 1.0 6.0 0.00 0.00 0.00 71 1023.0
20260901022922 79 171 1.0 5.0 0.00 0.00 0.00 71 1022.9
20260901022823 79 159 1.0 5.0 0.00 0.00 0.00 70 1023.0
20260901022753 80 159 1.0 6.0 0.00 0.00 0.00 70 1022.9
20260901022740 80 159 1.0 5.0 0.00 0.00 0.00 70 1023.0
20260901022523 80 229 1.0 6.0 0.00 0.00 0.00 70 1023.0
20260901022416 80 129 1.0 6.0 0.00 0.00 0.00 70 1022.9
20260901022317 80 146 1.0 6.0 0.00 0.00 0.00 69 1022.9
20260901022216 80 111 1.0 6.0 0.00 0.00 0.00 69 1022.9
20260901022154 80 229 1.0 6.0 0.00 0.00 0.00 69 1022.9
20260901022140 80 205 1.0 6.0 0.00 0.00 0.00 69 1023.0
20260901021949 80 175 1.0 6.0 0.00 0.00 0.00 69 1023.0
20260901021937 80 96 1.0 6.0 0.00 0.00 0.00 69 1022.9
20260901021719 80 175 1.0 6.0 0.00 0.00 0.00 69 1023.0
20260901021617 80 124 1.0 3.0 0.00 0.00 0.00 69 1023.0
20260901021517 80 121 1.0 3.0 0.00 0.00 0.00 69 1022.9
20260901021418 80 121 1.0 3.0 0.00 0.00 0.00 69 1023.0
20260901021330 80 126 1.0 3.0 0.00 0.00 0.00 70 1023.0
20260901021317 80 121 1.0 3.0 0.00 0.00 0.00 70 1022.9
20260901021255 80 126 1.0 3.0 0.00 0.00 0.00 70 1023.0
20260901021239 80 121 1.0 3.0 0.00 0.00 0.00 70 1023.0
20260901021019 80 182 1.0 3.0 0.00 0.00 0.00 70 1023.0
20260901020917 80 182 1.0 3.0 0.00 0.00 0.00 70 1022.9
20260901020816 80 120 1.0 3.0 0.00 0.00 0.00 70 1023.0
20260901020716 80 119 1.0 3.0 0.00 0.00 0.00 70 1022.9
20260901020616 80 119 1.0 3.0 0.00 0.00 0.00 70 1022.9
20260901020552 80 120 1.0 4.0 0.00 0.00 0.00 70 1022.9
20260901020539 80 128 1.0 3.0 0.00 0.00 0.00 70 1022.9
20260901020352 80 121 1.0 4.0 0.00 0.00 0.00 70 1022.9
20260901020340 80 121 1.0 4.0 0.00 0.00 0.00 70 1022.9
20260901020120 80 120 1.0 4.0 0.00 0.00 0.00 70 1022.9
20260901020016 80 120 1.0 4.0 0.00 0.00 0.00 70 1022.9
20260901015918 80 115 1.0 4.0 0.00 0.00 0.00 70 1022.9
20260901015816 80 133 1.0 4.0 0.00 0.00 0.00 70 1022.9
20260901015800 80 136 1.0 5.0 0.00 0.00 0.00 68 1022.7
20260901015754 80 90 1.0 4.0 0.00 0.00 0.00 70 1022.8
20260901015743 80 181 1.0 4.0 0.00 0.00 0.00 70 1022.9
20260901015559 80 105 1.0 4.0 0.00 0.00 0.00 69 1022.8
20260901015553 80 100 1.0 5.0 0.00 0.00 0.00 68 1022.7
20260901015549 80 109 1.0 5.0 0.00 0.00 0.00 68 1022.8
20260901015543 80 109 1.0 5.0 0.00 0.00 0.00 68 1022.7
20260901015528 80 185 1.0 4.0 0.00 0.00 0.00 70 1022.9
20260901015513 80 105 1.0 4.0 0.00 0.00 0.00 69 1022.8
20260901015443 80 105 1.0 5.0 0.00 0.00 0.00 69 1022.8
20260901015210 80 110 1.0 5.0 0.00 0.00 0.00 68 1022.8
20260901015152 80 110 1.0 5.0 0.00 0.00 0.00 68 1022.8
20260901014725 80 136 1.0 5.0 0.00 0.00 0.00 68 1022.7
20260901014658 80 162 1.0 5.0 0.00 0.00 0.00 68 1022.7
20260901014652 80 187 1.0 5.0 0.00 0.00 0.00 68 1022.7
20260901014603 80 150 1.0 5.0 0.00 0.00 0.00 68 1022.7
20260901014306 80 155 1.0 4.0 0.00 0.00 0.00 68 1022.7
20260901014204 80 155 1.0 4.0 0.00 0.00 0.00 69 1022.7
20260901014057 80 151 1.0 4.0 0.00 0.00 0.00 68 1022.7
20260901014005 80 151 1.0 4.0 0.00 0.00 0.00 69 1022.7
20260901013855 80 170 1.0 4.0 0.00 0.00 0.00 69 1022.7
20260901013753 80 169 1.0 4.0 0.00 0.00 0.00 69 1022.7
20260901013740 80 122 1.0 4.0 0.00 0.00 0.00 69 1022.7
20260901013721 80 123 1.0 4.0 0.00 0.00 0.00 69 1022.7
20260901013455 80 132 1.0 4.0 0.00 0.00 0.00 69 1022.7
20260901013352 80 132 1.0 4.0 0.00 0.00 0.00 69 1022.7
20260901013252 80 132 1.0 4.0 0.00 0.00 0.00 70 1022.7
20260901013149 80 136 1.0 4.0 0.00 0.00 0.00 70 1022.7
20260901013045 80 136 1.0 4.0 0.00 0.00 0.00 70 1022.7
20260901013023 80 123 1.0 4.0 0.00 0.00 0.00 70 1022.7
20260901013012 80 173 1.0 4.0 0.00 0.00 0.00 70 1022.7
20260901012742 80 112 1.0 4.0 0.00 0.00 0.00 70 1022.7
20260901012658 80 112 1.0 4.0 0.00 0.00 0.00 70 1022.7
20260901012529 80 169 0.0 4.0 0.00 0.00 0.00 69 1022.6
20260901012433 80 192 0.0 2.0 0.00 0.00 0.00 69 1022.6
20260901012415 80 192 0.0 2.0 0.00 0.00 0.00 69 1022.7